| time (UTC) | temp F | wind direction | speed MPH | gust MPH | rain 1hr in | rain 24hr in | rain mn in | humidity % | barometer mb |
| 20260905141027 | 74 | 267 | 0.0 | 0.0 | 0.00 | 0.57 | 0.00 | 97 | 1011.8 |
| 20260905140920 | 74 | 267 | 0.0 | 0.0 | 0.00 | 0.57 | 0.00 | 97 | 1011.8 |
| 20260905140815 | 74 | 267 | 0.0 | 1.0 | 0.00 | 0.57 | 0.00 | 97 | 1011.8 |
| 20260905140711 | 74 | 267 | 0.0 | 1.0 | 0.00 | 0.57 | 0.00 | 97 | 1011.8 |
| 20260905140605 | 74 | 274 | 0.0 | 1.0 | 0.00 | 0.57 | 0.00 | 97 | 1011.8 |
| 20260905140458 | 74 | 5 | 0.0 | 1.0 | 0.00 | 0.57 | 0.00 | 97 | 1011.9 |
| 20260905140353 | 74 | 355 | 0.0 | 1.0 | 0.00 | 0.57 | 0.00 | 97 | 1011.8 |
| 20260905140249 | 74 | 355 | 0.0 | 1.0 | 0.00 | 0.57 | 0.00 | 97 | 1011.8 |
| 20260905140146 | 74 | 355 | 0.0 | 0.0 | 0.00 | 0.57 | 0.00 | 97 | 1011.7 |
| 20260905140042 | 74 | 355 | 0.0 | 0.0 | 0.00 | 0.57 | 0.00 | 97 | 1011.7 |
| 20260905135720 | 74 | 62 | 0.0 | 0.0 | 0.00 | 0.57 | 0.00 | 97 | 1011.5 |
| 20260905135359 | 74 | 10 | 0.0 | 0.0 | 0.00 | 0.57 | 0.00 | 97 | 1011.4 |
| 20260905135034 | 74 | 10 | 0.0 | 0.0 | 0.00 | 0.57 | 0.00 | 97 | 1011.4 |
| 20260905134709 | 74 | 10 | 0.0 | 0.0 | 0.00 | 0.57 | 0.00 | 97 | 1011.3 |
| 20260905134601 | 74 | 10 | 0.0 | 0.0 | 0.00 | 0.57 | 0.00 | 97 | 1011.2 |
| 20260905134454 | 74 | 10 | 0.0 | 0.0 | 0.00 | 0.57 | 0.00 | 97 | 1011.2 |
| 20260905134348 | 74 | 10 | 0.0 | 0.0 | 0.00 | 0.57 | 0.00 | 97 | 1011.2 |
| 20260905134241 | 74 | 10 | 0.0 | 0.0 | 0.00 | 0.57 | 0.00 | 97 | 1011.1 |
| 20260905134136 | 74 | 10 | 0.0 | 0.0 | 0.00 | 0.57 | 0.00 | 97 | 1011.1 |
| 20260905133554 | 74 | 10 | 0.0 | 0.0 | 0.00 | 0.57 | 0.00 | 97 | 1011.2 |
| 20260905133447 | 74 | 10 | 0.0 | 0.0 | 0.00 | 0.57 | 0.00 | 97 | 1011.2 |
| 20260905133341 | 74 | 10 | 0.0 | 0.0 | 0.00 | 0.57 | 0.00 | 97 | 1011.2 |
| 20260905133239 | 74 | 10 | 0.0 | 0.0 | 0.00 | 0.57 | 0.00 | 97 | 1011.3 |
| 20260905133137 | 74 | 355 | 0.0 | 0.0 | 0.00 | 0.57 | 0.00 | 97 | 1011.2 |
| 20260905133032 | 74 | 355 | 0.0 | 0.0 | 0.00 | 0.57 | 0.00 | 97 | 1011.2 |
| 20260905132928 | 74 | 355 | 0.0 | 0.0 | 0.00 | 0.57 | 0.00 | 97 | 1011.2 |
| 20260905132825 | 74 | 355 | 0.0 | 1.0 | 0.00 | 0.57 | 0.00 | 97 | 1011.2 |
| 20260905132720 | 74 | 355 | 0.0 | 1.0 | 0.00 | 0.57 | 0.00 | 97 | 1011.2 |
| 20260905132614 | 73 | 355 | 0.0 | 1.0 | 0.00 | 0.57 | 0.00 | 97 | 1011.2 |
| 20260905132508 | 73 | 355 | 0.0 | 1.0 | 0.00 | 0.57 | 0.00 | 98 | 1011.2 |
| 20260905132405 | 74 | 355 | 0.0 | 1.0 | 0.00 | 0.57 | 0.00 | 98 | 1011.2 |
| 20260905132043 | 74 | 355 | 0.0 | 1.0 | 0.00 | 0.57 | 0.00 | 98 | 1011.1 |
| 20260905131723 | 74 | 304 | 0.0 | 1.0 | 0.00 | 0.57 | 0.00 | 98 | 1011.1 |
| 20260905131620 | 73 | 306 | 0.0 | 1.0 | 0.00 | 0.57 | 0.00 | 98 | 1011.0 |
| 20260905131513 | 73 | 277 | 0.0 | 0.0 | 0.00 | 0.57 | 0.00 | 98 | 1011.0 |
| 20260905130701 | 73 | 282 | 0.0 | 0.0 | 0.00 | 0.57 | 0.00 | 98 | 1011.2 |
| 20260905130557 | 73 | 282 | 0.0 | 0.0 | 0.00 | 0.57 | 0.00 | 98 | 1011.1 |
| 20260905130449 | 73 | 282 | 0.0 | 0.0 | 0.00 | 0.57 | 0.00 | 98 | 1011.1 |
| 20260905130343 | 73 | 282 | 0.0 | 0.0 | 0.00 | 0.57 | 0.00 | 98 | 1011.1 |
| 20260905130017 | 72 | 324 | 0.0 | 0.0 | 0.00 | 0.57 | 0.00 | 98 | 1011.1 |
| 20260905125913 | 72 | 324 | 0.0 | 0.0 | 0.00 | 0.57 | 0.00 | 98 | 1011.1 |
| 20260905125806 | 72 | 324 | 0.0 | 0.0 | 0.00 | 0.57 | 0.00 | 98 | 1011.2 |
| 20260905125700 | 72 | 324 | 0.0 | 0.0 | 0.00 | 0.57 | 0.00 | 98 | 1011.1 |
| 20260905125554 | 72 | 324 | 0.0 | 0.0 | 0.00 | 0.57 | 0.00 | 98 | 1011.2 |
| 20260905125446 | 72 | 324 | 0.0 | 0.0 | 0.00 | 0.57 | 0.00 | 98 | 1011.1 |
| 20260905125339 | 72 | 324 | 0.0 | 0.0 | 0.00 | 0.57 | 0.00 | 98 | 1011.1 |
| 20260905125236 | 71 | 324 | 0.0 | 0.0 | 0.00 | 0.57 | 0.00 | 98 | 1011.1 |
| 20260905124140 | 70 | 324 | 0.0 | 0.0 | 0.00 | 0.57 | 0.00 | 98 | 1011.2 |
| 20260905124035 | 70 | 324 | 0.0 | 0.0 | 0.00 | 0.57 | 0.00 | 98 | 1011.2 |
| 20260905123933 | 70 | 324 | 0.0 | 0.0 | 0.00 | 0.57 | 0.00 | 98 | 1011.1 |
| 20260905123827 | 70 | 324 | 0.0 | 0.0 | 0.00 | 0.57 | 0.00 | 98 | 1011.2 |
| 20260905123507 | 70 | 324 | 0.0 | 0.0 | 0.00 | 0.57 | 0.00 | 98 | 1011.2 |
| 20260905123402 | 70 | 324 | 0.0 | 0.0 | 0.00 | 0.57 | 0.00 | 98 | 1011.2 |
| 20260905123255 | 70 | 324 | 0.0 | 0.0 | 0.00 | 0.57 | 0.00 | 98 | 1011.3 |
| 20260905123148 | 70 | 324 | 0.0 | 0.0 | 0.00 | 0.57 | 0.00 | 98 | 1011.2 |
| 20260905122828 | 70 | 324 | 0.0 | 0.0 | 0.00 | 0.57 | 0.00 | 98 | 1011.2 |
| 20260905122504 | 70 | 324 | 0.0 | 0.0 | 0.00 | 0.57 | 0.00 | 98 | 1011.1 |
| 20260905122400 | 70 | 324 | 0.0 | 0.0 | 0.00 | 0.57 | 0.00 | 98 | 1011.1 |
| 20260905122251 | 70 | 324 | 0.0 | 0.0 | 0.00 | 0.57 | 0.00 | 98 | 1011.2 |
| 20260905122147 | 70 | 324 | 0.0 | 0.0 | 0.00 | 0.57 | 0.00 | 98 | 1011.1 |
| 20260905122043 | 70 | 324 | 0.0 | 0.0 | 0.00 | 0.57 | 0.00 | 98 | 1011.2 |
| 20260905121939 | 70 | 324 | 0.0 | 0.0 | 0.00 | 0.57 | 0.00 | 98 | 1011.2 |
| 20260905121836 | 70 | 324 | 0.0 | 0.0 | 0.00 | 0.57 | 0.00 | 98 | 1011.1 |
| 20260905121729 | 70 | 324 | 0.0 | 0.0 | 0.00 | 0.57 | 0.00 | 98 | 1011.1 |
| 20260905121626 | 70 | 324 | 0.0 | 0.0 | 0.00 | 0.57 | 0.00 | 98 | 1011.2 |
| 20260905121520 | 70 | 324 | 0.0 | 0.0 | 0.00 | 0.57 | 0.00 | 98 | 1011.2 |
| 20260905121414 | 70 | 324 | 0.0 | 0.0 | 0.00 | 0.57 | 0.00 | 98 | 1011.1 |
| 20260905121311 | 70 | 324 | 0.0 | 0.0 | 0.00 | 0.57 | 0.00 | 98 | 1011.1 |
| 20260905121208 | 70 | 324 | 0.0 | 0.0 | 0.00 | 0.57 | 0.00 | 98 | 1011.1 |
| 20260905121101 | 70 | 324 | 0.0 | 0.0 | 0.00 | 0.57 | 0.00 | 98 | 1011.1 |
| 20260905120954 | 69 | 324 | 0.0 | 0.0 | 0.00 | 0.57 | 0.00 | 98 | 1011.1 |
| 20260905120851 | 69 | 324 | 0.0 | 0.0 | 0.00 | 0.57 | 0.00 | 98 | 1011.1 |
| 20260905120747 | 69 | 324 | 0.0 | 0.0 | 0.00 | 0.57 | 0.00 | 98 | 1011.0 |
| 20260905120641 | 69 | 324 | 0.0 | 0.0 | 0.00 | 0.57 | 0.00 | 98 | 1011.0 |
| 20260905120319 | 69 | 324 | 0.0 | 0.0 | 0.00 | 0.57 | 0.00 | 98 | 1011.1 |
| 20260905120214 | 69 | 324 | 0.0 | 0.0 | 0.00 | 0.57 | 0.00 | 98 | 1011.1 |
| 20260905120111 | 69 | 324 | 0.0 | 0.0 | 0.00 | 0.57 | 0.00 | 98 | 1011.1 |
| 20260905120009 | 69 | 324 | 0.0 | 0.0 | 0.00 | 0.57 | 0.00 | 98 | 1011.0 |
| 20260905115905 | 69 | 324 | 0.0 | 0.0 | 0.00 | 0.57 | 0.00 | 98 | 1011.0 |
| 20260905115539 | 69 | 324 | 0.0 | 0.0 | 0.00 | 0.57 | 0.00 | 97 | 1011.0 |
| 20260905115433 | 69 | 324 | 0.0 | 0.0 | 0.00 | 0.57 | 0.00 | 97 | 1011.0 |
| 20260905115331 | 69 | 324 | 0.0 | 0.0 | 0.00 | 0.57 | 0.00 | 97 | 1010.9 |
| 20260905115225 | 69 | 324 | 0.0 | 0.0 | 0.00 | 0.57 | 0.00 | 97 | 1010.9 |
| 20260905115122 | 69 | 324 | 0.0 | 0.0 | 0.00 | 0.57 | 0.00 | 97 | 1011.0 |
| 20260905115017 | 69 | 324 | 0.0 | 0.0 | 0.00 | 0.57 | 0.00 | 97 | 1011.0 |
| 20260905114916 | 69 | 324 | 0.0 | 0.0 | 0.00 | 0.57 | 0.00 | 97 | 1011.0 |
| 20260905114811 | 69 | 324 | 0.0 | 0.0 | 0.00 | 0.57 | 0.00 | 97 | 1011.0 |
| 20260905114705 | 69 | 324 | 0.0 | 0.0 | 0.00 | 0.57 | 0.00 | 97 | 1010.9 |
| 20260905114341 | 69 | 324 | 0.0 | 0.0 | 0.00 | 0.57 | 0.00 | 97 | 1010.9 |
| 20260905114236 | 69 | 324 | 0.0 | 0.0 | 0.00 | 0.57 | 0.00 | 97 | 1010.9 |
| 20260905114132 | 69 | 324 | 0.0 | 0.0 | 0.00 | 0.57 | 0.00 | 97 | 1010.8 |
| 20260905114026 | 69 | 324 | 0.0 | 0.0 | 0.00 | 0.57 | 0.00 | 97 | 1010.8 |
| 20260905113921 | 69 | 324 | 0.0 | 0.0 | 0.00 | 0.57 | 0.00 | 97 | 1010.9 |
| 20260905113556 | 69 | 324 | 0.0 | 0.0 | 0.00 | 0.57 | 0.00 | 97 | 1010.8 |
| 20260905113452 | 69 | 324 | 0.0 | 0.0 | 0.00 | 0.57 | 0.00 | 97 | 1010.8 |
| 20260905113344 | 69 | 324 | 0.0 | 0.0 | 0.00 | 0.57 | 0.00 | 97 | 1010.9 |
| 20260905113241 | 69 | 324 | 0.0 | 0.0 | 0.00 | 0.57 | 0.00 | 97 | 1010.9 |
| 20260905113135 | 69 | 324 | 0.0 | 0.0 | 0.00 | 0.57 | 0.00 | 97 | 1010.9 |
| 20260905113031 | 69 | 324 | 0.0 | 0.0 | 0.00 | 0.57 | 0.00 | 97 | 1010.8 |
| 20260905112929 | 69 | 324 | 0.0 | 0.0 | 0.00 | 0.57 | 0.00 | 97 | 1010.8 |
| 20260905112826 | 68 | 324 | 0.0 | 0.0 | 0.00 | 0.57 | 0.00 | 97 | 1010.8 |
| 20260905112719 | 69 | 324 | 0.0 | 0.0 | 0.00 | 0.57 | 0.00 | 97 | 1010.8 |
| 20260905112618 | 68 | 324 | 0.0 | 0.0 | 0.00 | 0.57 | 0.00 | 97 | 1010.8 |
| 20260905112513 | 69 | 324 | 0.0 | 0.0 | 0.00 | 0.57 | 0.00 | 97 | 1010.8 |
| 20260905112408 | 69 | 324 | 0.0 | 0.0 | 0.00 | 0.57 | 0.00 | 97 | 1010.7 |
| 20260905112306 | 68 | 324 | 0.0 | 0.0 | 0.00 | 0.57 | 0.00 | 97 | 1010.7 |
| 20260905112203 | 69 | 324 | 0.0 | 0.0 | 0.00 | 0.57 | 0.00 | 97 | 1010.8 |
| 20260905111832 | 69 | 324 | 0.0 | 0.0 | 0.00 | 0.57 | 0.00 | 97 | 1010.8 |
| 20260905111730 | 69 | 324 | 0.0 | 0.0 | 0.00 | 0.57 | 0.00 | 97 | 1010.8 |
| 20260905111624 | 69 | 324 | 0.0 | 0.0 | 0.00 | 0.57 | 0.00 | 97 | 1010.9 |
| 20260905111516 | 69 | 324 | 0.0 | 0.0 | 0.00 | 0.57 | 0.00 | 97 | 1010.9 |
| 20260905111410 | 69 | 324 | 0.0 | 0.0 | 0.00 | 0.57 | 0.00 | 97 | 1010.9 |
| 20260905110821 | 69 | 297 | 0.0 | 0.0 | 0.00 | 0.57 | 0.00 | 97 | 1010.8 |
| 20260905110717 | 69 | 297 | 0.0 | 0.0 | 0.00 | 0.57 | 0.00 | 97 | 1010.8 |
| 20260905110353 | 69 | 297 | 0.0 | 0.0 | 0.00 | 0.57 | 0.00 | 97 | 1010.8 |
| 20260905110250 | 69 | 297 | 0.0 | 0.0 | 0.00 | 0.57 | 0.00 | 97 | 1010.9 |
| 20260905105926 | 69 | 297 | 0.0 | 0.0 | 0.00 | 0.57 | 0.00 | 97 | 1010.8 |
| 20260905105822 | 68 | 297 | 0.0 | 0.0 | 0.00 | 0.57 | 0.00 | 97 | 1010.8 |
| 20260905105458 | 68 | 297 | 0.0 | 0.0 | 0.00 | 0.57 | 0.00 | 97 | 1010.6 |
| 20260905105352 | 69 | 308 | 0.0 | 0.0 | 0.00 | 0.57 | 0.00 | 97 | 1010.5 |
| 20260905105250 | 68 | 28 | 0.0 | 0.0 | 0.00 | 0.57 | 0.00 | 97 | 1010.5 |
| 20260905105144 | 69 | 28 | 0.0 | 0.0 | 0.00 | 0.57 | 0.00 | 97 | 1010.5 |
| 20260905105038 | 69 | 28 | 0.0 | 0.0 | 0.00 | 0.57 | 0.00 | 97 | 1010.4 |
| 20260905104935 | 69 | 28 | 0.0 | 0.0 | 0.00 | 0.57 | 0.00 | 97 | 1010.4 |
| 20260905104614 | 69 | 28 | 0.0 | 0.0 | 0.00 | 0.57 | 0.00 | 97 | 1010.3 |
| 20260905104508 | 69 | 28 | 0.0 | 0.0 | 0.00 | 0.57 | 0.00 | 97 | 1010.3 |
| 20260905103926 | 69 | 28 | 0.0 | 0.0 | 0.00 | 0.57 | 0.00 | 97 | 1010.3 |
| 20260905103823 | 69 | 28 | 0.0 | 0.0 | 0.00 | 0.57 | 0.00 | 97 | 1010.3 |
| 20260905103717 | 69 | 28 | 0.0 | 0.0 | 0.00 | 0.57 | 0.00 | 97 | 1010.2 |
| 20260905103616 | 69 | 28 | 0.0 | 0.0 | 0.00 | 0.57 | 0.00 | 97 | 1010.3 |
| 20260905103513 | 69 | 28 | 0.0 | 0.0 | 0.00 | 0.57 | 0.00 | 97 | 1010.3 |
| 20260905103408 | 69 | 28 | 0.0 | 0.0 | 0.00 | 0.57 | 0.00 | 97 | 1010.3 |
| 20260905103305 | 69 | 28 | 0.0 | 0.0 | 0.00 | 0.57 | 0.00 | 97 | 1010.2 |
| 20260905103201 | 69 | 28 | 0.0 | 0.0 | 0.00 | 0.57 | 0.00 | 97 | 1010.2 |
| 20260905103057 | 69 | 28 | 0.0 | 0.0 | 0.00 | 0.57 | 0.00 | 97 | 1010.2 |
| 20260905102953 | 69 | 28 | 0.0 | 0.0 | 0.00 | 0.57 | 0.00 | 97 | 1010.2 |
| 20260905102846 | 69 | 28 | 0.0 | 0.0 | 0.00 | 0.57 | 0.00 | 97 | 1010.2 |
| 20260905102521 | 69 | 28 | 0.0 | 0.0 | 0.00 | 0.57 | 0.00 | 97 | 1010.1 |
| 20260905102416 | 69 | 28 | 0.0 | 0.0 | 0.00 | 0.57 | 0.00 | 97 | 1010.1 |
| 20260905102311 | 69 | 28 | 0.0 | 0.0 | 0.00 | 0.57 | 0.00 | 97 | 1010.1 |
| 20260905102207 | 69 | 28 | 0.0 | 0.0 | 0.00 | 0.57 | 0.00 | 97 | 1010.1 |
| 20260905102059 | 69 | 28 | 0.0 | 0.0 | 0.00 | 0.57 | 0.00 | 97 | 1010.0 |
| 20260905101954 | 69 | 28 | 0.0 | 0.0 | 0.00 | 0.57 | 0.00 | 97 | 1010.0 |
| 20260905101846 | 69 | 28 | 0.0 | 0.0 | 0.00 | 0.57 | 0.00 | 97 | 1009.9 |
| 20260905101741 | 69 | 28 | 0.0 | 0.0 | 0.00 | 0.57 | 0.00 | 97 | 1009.9 |
| 20260905101634 | 69 | 28 | 0.0 | 0.0 | 0.00 | 0.57 | 0.00 | 97 | 1009.9 |
| 20260905101529 | 69 | 28 | 0.0 | 0.0 | 0.00 | 0.57 | 0.00 | 97 | 1009.9 |
| 20260905101423 | 69 | 28 | 0.0 | 0.0 | 0.00 | 0.57 | 0.00 | 97 | 1009.9 |
| 20260905101320 | 69 | 28 | 0.0 | 0.0 | 0.00 | 0.57 | 0.00 | 97 | 1009.9 |
| 20260905101216 | 69 | 28 | 0.0 | 0.0 | 0.00 | 0.57 | 0.00 | 97 | 1010.0 |
| 20260905101109 | 69 | 28 | 0.0 | 0.0 | 0.00 | 0.57 | 0.00 | 97 | 1009.9 |
| 20260905101005 | 69 | 28 | 0.0 | 0.0 | 0.00 | 0.57 | 0.00 | 97 | 1009.9 |
| 20260905100901 | 69 | 28 | 0.0 | 0.0 | 0.00 | 0.57 | 0.00 | 97 | 1009.9 |
| 20260905100757 | 69 | 28 | 0.0 | 0.0 | 0.00 | 0.57 | 0.00 | 97 | 1009.9 |
| 20260905100650 | 69 | 28 | 0.0 | 0.0 | 0.00 | 0.57 | 0.00 | 97 | 1009.9 |
| 20260905100547 | 69 | 28 | 0.0 | 0.0 | 0.00 | 0.57 | 0.00 | 97 | 1009.8 |
| 20260905100441 | 69 | 28 | 0.0 | 0.0 | 0.00 | 0.57 | 0.00 | 97 | 1009.8 |
| 20260905100334 | 69 | 28 | 0.0 | 0.0 | 0.00 | 0.57 | 0.00 | 97 | 1009.8 |
| 20260905100231 | 69 | 28 | 0.0 | 0.0 | 0.00 | 0.57 | 0.00 | 97 | 1009.9 |
| 20260905100123 | 69 | 28 | 0.0 | 0.0 | 0.00 | 0.57 | 0.00 | 97 | 1009.8 |
| 20260905100019 | 69 | 28 | 0.0 | 0.0 | 0.00 | 0.57 | 0.00 | 97 | 1009.8 |
| 20260905095917 | 69 | 28 | 0.0 | 0.0 | 0.00 | 0.57 | 0.00 | 97 | 1009.8 |
| 20260905095810 | 69 | 28 | 0.0 | 0.0 | 0.00 | 0.57 | 0.00 | 97 | 1009.8 |
| 20260905095705 | 69 | 28 | 0.0 | 0.0 | 0.00 | 0.57 | 0.00 | 97 | 1009.8 |
| 20260905095340 | 69 | 28 | 0.0 | 0.0 | 0.00 | 0.57 | 0.00 | 97 | 1009.7 |
| 20260905095236 | 69 | 28 | 0.0 | 0.0 | 0.00 | 0.57 | 0.00 | 97 | 1009.7 |
| 20260905095131 | 69 | 28 | 0.0 | 0.0 | 0.00 | 0.57 | 0.00 | 97 | 1009.7 |
| 20260905095025 | 69 | 28 | 0.0 | 0.0 | 0.00 | 0.57 | 0.00 | 97 | 1009.7 |
| 20260905094922 | 69 | 28 | 0.0 | 1.0 | 0.00 | 0.57 | 0.00 | 97 | 1009.7 |
| 20260905094819 | 69 | 28 | 0.0 | 1.0 | 0.00 | 0.57 | 0.00 | 97 | 1009.7 |
| 20260905094715 | 69 | 28 | 0.0 | 1.0 | 0.00 | 0.57 | 0.00 | 97 | 1009.7 |
| 20260905094611 | 69 | 28 | 0.0 | 1.0 | 0.00 | 0.57 | 0.00 | 97 | 1009.7 |
| 20260905094509 | 69 | 28 | 0.0 | 1.0 | 0.00 | 0.57 | 0.00 | 97 | 1009.7 |
| 20260905094401 | 69 | 28 | 0.0 | 1.0 | 0.00 | 0.57 | 0.00 | 97 | 1009.7 |
| 20260905094253 | 69 | 28 | 0.0 | 0.0 | 0.00 | 0.57 | 0.00 | 97 | 1009.7 |
| 20260905093930 | 69 | 28 | 0.0 | 0.0 | 0.00 | 0.57 | 0.00 | 97 | 1009.8 |
| 20260905093828 | 69 | 28 | 0.0 | 0.0 | 0.00 | 0.57 | 0.00 | 97 | 1009.8 |
| 20260905093724 | 69 | 28 | 0.0 | 0.0 | 0.00 | 0.57 | 0.00 | 97 | 1009.8 |
| 20260905093622 | 69 | 28 | 0.0 | 0.0 | 0.00 | 0.57 | 0.00 | 97 | 1009.8 |
| 20260905093515 | 69 | 28 | 0.0 | 0.0 | 0.00 | 0.57 | 0.00 | 97 | 1009.8 |
| 20260905093411 | 69 | 28 | 0.0 | 0.0 | 0.00 | 0.57 | 0.00 | 97 | 1009.8 |
| 20260905093304 | 69 | 28 | 0.0 | 0.0 | 0.00 | 0.57 | 0.00 | 97 | 1009.8 |
| 20260905093157 | 69 | 28 | 0.0 | 1.0 | 0.00 | 0.57 | 0.00 | 97 | 1009.8 |
| 20260905093051 | 69 | 28 | 0.0 | 1.0 | 0.00 | 0.57 | 0.00 | 97 | 1009.8 |
| 20260905092948 | 69 | 28 | 0.0 | 1.0 | 0.00 | 0.57 | 0.00 | 97 | 1009.8 |
| 20260905092846 | 69 | 28 | 0.0 | 0.0 | 0.00 | 0.57 | 0.00 | 97 | 1009.7 |
| 20260905092745 | 69 | 28 | 0.0 | 0.0 | 0.00 | 0.57 | 0.00 | 97 | 1009.8 |
| 20260905092640 | 69 | 28 | 0.0 | 0.0 | 0.00 | 0.57 | 0.00 | 97 | 1009.7 |
| 20260905092536 | 69 | 28 | 0.0 | 0.0 | 0.00 | 0.57 | 0.00 | 97 | 1009.7 |
| 20260905092429 | 69 | 28 | 0.0 | 0.0 | 0.00 | 0.57 | 0.00 | 97 | 1009.7 |
| 20260905092103 | 69 | 28 | 0.0 | 0.0 | 0.00 | 0.57 | 0.00 | 97 | 1009.8 |
| 20260905092001 | 69 | 28 | 0.0 | 0.0 | 0.00 | 0.57 | 0.00 | 97 | 1009.8 |
| 20260905091858 | 69 | 28 | 0.0 | 0.0 | 0.00 | 0.57 | 0.00 | 97 | 1009.8 |
| 20260905091755 | 69 | 28 | 0.0 | 0.0 | 0.00 | 0.57 | 0.00 | 97 | 1009.8 |
| 20260905091648 | 69 | 28 | 0.0 | 0.0 | 0.00 | 0.57 | 0.00 | 97 | 1009.8 |
| 20260905091541 | 69 | 28 | 0.0 | 0.0 | 0.00 | 0.57 | 0.00 | 97 | 1009.8 |
| 20260905091439 | 69 | 28 | 0.0 | 0.0 | 0.00 | 0.57 | 0.00 | 97 | 1009.8 |
| 20260905091334 | 69 | 28 | 0.0 | 0.0 | 0.00 | 0.57 | 0.00 | 97 | 1009.8 |
| 20260905091010 | 69 | 28 | 0.0 | 0.0 | 0.00 | 0.57 | 0.00 | 97 | 1009.8 |
| 20260905090908 | 69 | 28 | 0.0 | 0.0 | 0.00 | 0.57 | 0.00 | 97 | 1009.8 |
| 20260905090801 | 69 | 28 | 0.0 | 0.0 | 0.00 | 0.57 | 0.00 | 97 | 1009.8 |
| 20260905090432 | 69 | 28 | 0.0 | 0.0 | 0.00 | 0.57 | 0.00 | 97 | 1009.8 |
| 20260905090110 | 69 | 28 | 0.0 | 0.0 | 0.00 | 0.57 | 0.00 | 97 | 1009.9 |
| 20260905090006 | 69 | 28 | 0.0 | 0.0 | 0.00 | 0.57 | 0.00 | 97 | 1009.9 |
| 20260905085859 | 69 | 28 | 0.0 | 0.0 | 0.00 | 0.57 | 0.00 | 97 | 1009.9 |
| 20260905085757 | 69 | 28 | 0.0 | 0.0 | 0.00 | 0.57 | 0.00 | 97 | 1009.9 |
| 20260905085653 | 69 | 28 | 0.0 | 0.0 | 0.00 | 0.57 | 0.00 | 97 | 1009.9 |
| 20260905085549 | 69 | 28 | 0.0 | 0.0 | 0.00 | 0.57 | 0.00 | 97 | 1009.9 |
| 20260905085444 | 69 | 28 | 0.0 | 0.0 | 0.00 | 0.57 | 0.00 | 97 | 1009.9 |
| 20260905085338 | 69 | 28 | 0.0 | 0.0 | 0.00 | 0.57 | 0.00 | 97 | 1009.9 |
| 20260905085234 | 69 | 28 | 0.0 | 0.0 | 0.00 | 0.57 | 0.00 | 97 | 1009.9 |
| 20260905085130 | 69 | 28 | 0.0 | 0.0 | 0.00 | 0.57 | 0.00 | 97 | 1009.9 |
| 20260905085024 | 69 | 28 | 0.0 | 0.0 | 0.00 | 0.57 | 0.00 | 97 | 1009.9 |
| 20260905084920 | 69 | 28 | 0.0 | 0.0 | 0.00 | 0.57 | 0.00 | 97 | 1009.9 |
| 20260905084817 | 69 | 28 | 0.0 | 0.0 | 0.00 | 0.57 | 0.00 | 97 | 1009.9 |
| 20260905084714 | 69 | 28 | 0.0 | 0.0 | 0.00 | 0.57 | 0.00 | 97 | 1009.8 |
| 20260905084611 | 69 | 28 | 0.0 | 0.0 | 0.00 | 0.57 | 0.00 | 97 | 1009.9 |
| 20260905084504 | 69 | 28 | 0.0 | 0.0 | 0.00 | 0.57 | 0.00 | 97 | 1009.9 |
| 20260905084139 | 69 | 28 | 0.0 | 0.0 | 0.00 | 0.57 | 0.00 | 97 | 1009.8 |
| 20260905084034 | 69 | 28 | 0.0 | 0.0 | 0.00 | 0.57 | 0.00 | 97 | 1009.9 |
| 20260905083927 | 69 | 28 | 0.0 | 0.0 | 0.00 | 0.57 | 0.00 | 97 | 1009.8 |
| 20260905083822 | 69 | 28 | 0.0 | 0.0 | 0.00 | 0.57 | 0.00 | 97 | 1009.8 |
| 20260905083717 | 69 | 28 | 0.0 | 0.0 | 0.00 | 0.57 | 0.00 | 97 | 1009.8 |
| 20260905083612 | 69 | 28 | 0.0 | 0.0 | 0.00 | 0.57 | 0.00 | 97 | 1009.8 |
| 20260905083510 | 70 | 28 | 0.0 | 0.0 | 0.00 | 0.57 | 0.00 | 97 | 1009.8 |
| 20260905083407 | 69 | 28 | 0.0 | 0.0 | 0.00 | 0.57 | 0.00 | 97 | 1009.8 |
| 20260905083305 | 69 | 28 | 0.0 | 0.0 | 0.00 | 0.57 | 0.00 | 97 | 1009.9 |
| 20260905083200 | 69 | 28 | 0.0 | 0.0 | 0.00 | 0.57 | 0.00 | 97 | 1009.8 |
| 20260905082350 | 70 | 28 | 0.0 | 0.0 | 0.00 | 0.57 | 0.00 | 97 | 1009.9 |
| 20260905082243 | 70 | 28 | 0.0 | 0.0 | 0.00 | 0.57 | 0.00 | 97 | 1009.9 |
| 20260905082140 | 70 | 28 | 0.0 | 0.0 | 0.00 | 0.57 | 0.00 | 97 | 1009.9 |
| 20260905082035 | 70 | 28 | 0.0 | 0.0 | 0.00 | 0.57 | 0.00 | 97 | 1009.9 |
| 20260905081927 | 70 | 28 | 0.0 | 0.0 | 0.00 | 0.57 | 0.00 | 97 | 1009.9 |
| 20260905081603 | 70 | 28 | 0.0 | 0.0 | 0.00 | 0.57 | 0.00 | 97 | 1010.0 |
| 20260905081458 | 70 | 28 | 0.0 | 0.0 | 0.00 | 0.57 | 0.00 | 97 | 1010.0 |
| 20260905081353 | 70 | 28 | 0.0 | 0.0 | 0.00 | 0.57 | 0.00 | 97 | 1010.0 |
| 20260905080803 | 70 | 28 | 0.0 | 0.0 | 0.00 | 0.57 | 0.00 | 97 | 1010.0 |
| 20260905080659 | 70 | 28 | 0.0 | 0.0 | 0.00 | 0.57 | 0.00 | 97 | 1010.0 |
| 20260905080552 | 70 | 28 | 0.0 | 0.0 | 0.00 | 0.57 | 0.00 | 97 | 1010.1 |
| 20260905080230 | 70 | 28 | 0.0 | 0.0 | 0.00 | 0.57 | 0.00 | 97 | 1010.1 |
| 20260905075907 | 70 | 28 | 0.0 | 0.0 | 0.00 | 0.57 | 0.00 | 97 | 1010.1 |
| 20260905075759 | 70 | 28 | 0.0 | 0.0 | 0.00 | 0.57 | 0.00 | 97 | 1010.2 |
| 20260905075431 | 70 | 28 | 0.0 | 0.0 | 0.00 | 0.57 | 0.00 | 97 | 1010.3 |
| 20260905075327 | 70 | 28 | 0.0 | 0.0 | 0.00 | 0.57 | 0.00 | 97 | 1010.4 |
| 20260905075225 | 70 | 28 | 0.0 | 0.0 | 0.00 | 0.57 | 0.00 | 97 | 1010.3 |
| 20260905075116 | 70 | 28 | 0.0 | 0.0 | 0.00 | 0.57 | 0.00 | 97 | 1010.3 |
| 20260905075010 | 70 | 28 | 0.0 | 0.0 | 0.00 | 0.57 | 0.00 | 97 | 1010.3 |
| 20260905074641 | 70 | 28 | 0.0 | 0.0 | 0.00 | 0.57 | 0.00 | 97 | 1010.3 |
| 20260905074538 | 70 | 28 | 0.0 | 0.0 | 0.00 | 0.57 | 0.00 | 97 | 1010.3 |
| 20260905074435 | 70 | 28 | 0.0 | 0.0 | 0.00 | 0.57 | 0.00 | 97 | 1010.3 |
| 20260905074333 | 70 | 28 | 0.0 | 0.0 | 0.00 | 0.57 | 0.00 | 97 | 1010.3 |
| 20260905074228 | 70 | 28 | 0.0 | 0.0 | 0.00 | 0.57 | 0.00 | 97 | 1010.3 |
| 20260905074124 | 70 | 28 | 0.0 | 0.0 | 0.00 | 0.57 | 0.00 | 97 | 1010.3 |
| 20260905074019 | 70 | 28 | 0.0 | 0.0 | 0.00 | 0.57 | 0.00 | 97 | 1010.3 |
| 20260905073915 | 70 | 28 | 0.0 | 0.0 | 0.00 | 0.57 | 0.00 | 97 | 1010.3 |
| 20260905073807 | 70 | 28 | 0.0 | 0.0 | 0.00 | 0.57 | 0.00 | 97 | 1010.2 |
| 20260905073701 | 70 | 28 | 0.0 | 0.0 | 0.00 | 0.57 | 0.00 | 97 | 1010.2 |
| 20260905073553 | 70 | 28 | 0.0 | 0.0 | 0.00 | 0.57 | 0.00 | 97 | 1010.2 |
| 20260905073446 | 70 | 28 | 0.0 | 0.0 | 0.00 | 0.57 | 0.00 | 97 | 1010.2 |
| 20260905073118 | 70 | 28 | 0.0 | 0.0 | 0.00 | 0.57 | 0.00 | 97 | 1010.2 |
| 20260905073012 | 70 | 28 | 0.0 | 0.0 | 0.00 | 0.58 | 0.00 | 97 | 1010.2 |
| 20260905072905 | 70 | 28 | 0.0 | 0.0 | 0.00 | 0.58 | 0.00 | 97 | 1010.2 |
| 20260905072320 | 70 | 28 | 0.0 | 0.0 | 0.00 | 0.58 | 0.00 | 97 | 1010.3 |
| 20260905072213 | 71 | 28 | 0.0 | 0.0 | 0.00 | 0.58 | 0.00 | 97 | 1010.3 |
| 20260905072106 | 71 | 28 | 0.0 | 0.0 | 0.00 | 0.58 | 0.00 | 97 | 1010.3 |
| 20260905071959 | 70 | 28 | 0.0 | 0.0 | 0.00 | 0.58 | 0.00 | 97 | 1010.3 |
| 20260905071853 | 71 | 28 | 0.0 | 0.0 | 0.00 | 0.58 | 0.00 | 97 | 1010.3 |
| 20260905071751 | 70 | 28 | 0.0 | 0.0 | 0.00 | 0.58 | 0.00 | 97 | 1010.3 |
| 20260905071649 | 71 | 28 | 0.0 | 0.0 | 0.00 | 0.58 | 0.00 | 97 | 1010.3 |
| 20260905071324 | 71 | 28 | 0.0 | 0.0 | 0.00 | 0.58 | 0.00 | 97 | 1010.3 |
| 20260905071218 | 71 | 28 | 0.0 | 0.0 | 0.00 | 0.58 | 0.00 | 97 | 1010.3 |
| 20260905071113 | 71 | 28 | 0.0 | 0.0 | 0.00 | 0.58 | 0.00 | 97 | 1010.3 |
| 20260905071009 | 71 | 28 | 0.0 | 0.0 | 0.00 | 0.58 | 0.00 | 97 | 1010.4 |
| 20260905070905 | 71 | 28 | 0.0 | 0.0 | 0.00 | 0.58 | 0.00 | 97 | 1010.4 |
| 20260905070800 | 71 | 28 | 0.0 | 0.0 | 0.00 | 0.58 | 0.00 | 97 | 1010.3 |
| 20260905070212 | 71 | 28 | 0.0 | 0.0 | 0.00 | 0.58 | 0.00 | 97 | 1010.5 |
| 20260905070105 | 71 | 28 | 0.0 | 0.0 | 0.00 | 0.58 | 0.00 | 97 | 1010.5 |
| 20260905065736 | 71 | 28 | 0.0 | 0.0 | 0.00 | 0.58 | 0.00 | 97 | 1010.5 |
| 20260905065634 | 71 | 28 | 0.0 | 0.0 | 0.00 | 0.58 | 0.00 | 97 | 1010.5 |
| 20260905065047 | 71 | 28 | 0.0 | 0.0 | 0.00 | 0.58 | 0.00 | 97 | 1010.6 |
| 20260905064944 | 71 | 28 | 0.0 | 0.0 | 0.00 | 0.58 | 0.00 | 97 | 1010.6 |
| 20260905064842 | 71 | 28 | 0.0 | 0.0 | 0.00 | 0.58 | 0.00 | 97 | 1010.6 |
| 20260905064518 | 71 | 28 | 0.0 | 0.0 | 0.00 | 0.58 | 0.00 | 97 | 1010.6 |
| 20260905064416 | 71 | 28 | 0.0 | 0.0 | 0.00 | 0.58 | 0.00 | 97 | 1010.6 |
| 20260905064314 | 71 | 28 | 0.0 | 0.0 | 0.00 | 0.58 | 0.00 | 97 | 1010.6 |
| 20260905063946 | 71 | 28 | 0.0 | 0.0 | 0.00 | 0.58 | 0.00 | 97 | 1010.6 |
| 20260905063838 | 71 | 28 | 0.0 | 0.0 | 0.00 | 0.58 | 0.00 | 97 | 1010.7 |
| 20260905063734 | 71 | 28 | 0.0 | 0.0 | 0.00 | 0.58 | 0.00 | 97 | 1010.7 |
| 20260905063628 | 71 | 28 | 0.0 | 0.0 | 0.00 | 0.58 | 0.00 | 97 | 1010.7 |
| 20260905063303 | 71 | 28 | 0.0 | 0.0 | 0.00 | 0.58 | 0.00 | 97 | 1010.8 |
| 20260905063200 | 71 | 28 | 0.0 | 0.0 | 0.00 | 0.58 | 0.00 | 97 | 1010.8 |
| 20260905063058 | 71 | 28 | 0.0 | 0.0 | 0.00 | 0.58 | 0.00 | 97 | 1010.9 |
| 20260905062734 | 71 | 28 | 0.0 | 0.0 | 0.00 | 0.58 | 0.00 | 97 | 1010.9 |
| 20260905062631 | 71 | 28 | 0.0 | 0.0 | 0.00 | 0.58 | 0.00 | 97 | 1010.9 |
| 20260905062525 | 71 | 28 | 0.0 | 0.0 | 0.00 | 0.58 | 0.00 | 97 | 1010.9 |
| 20260905062418 | 71 | 28 | 0.0 | 0.0 | 0.00 | 0.58 | 0.00 | 97 | 1010.9 |
| 20260905062312 | 71 | 28 | 0.0 | 0.0 | 0.00 | 0.58 | 0.00 | 97 | 1010.9 |
| 20260905062207 | 71 | 28 | 0.0 | 0.0 | 0.00 | 0.58 | 0.00 | 97 | 1010.9 |
| 20260905061841 | 71 | 28 | 0.0 | 0.0 | 0.00 | 0.58 | 0.00 | 97 | 1010.9 |
| 20260905061735 | 71 | 28 | 0.0 | 0.0 | 0.00 | 0.58 | 0.00 | 97 | 1010.9 |
| 20260905061631 | 71 | 28 | 0.0 | 0.0 | 0.00 | 0.58 | 0.00 | 97 | 1010.9 |
| 20260905061528 | 71 | 28 | 0.0 | 0.0 | 0.00 | 0.58 | 0.00 | 97 | 1011.0 |
| 20260905061421 | 71 | 28 | 0.0 | 0.0 | 0.00 | 0.58 | 0.00 | 97 | 1011.0 |
| 20260905061317 | 71 | 28 | 0.0 | 0.0 | 0.00 | 0.58 | 0.00 | 97 | 1011.0 |
| 20260905061213 | 71 | 28 | 0.0 | 0.0 | 0.00 | 0.58 | 0.00 | 97 | 1011.0 |
| 20260905061108 | 71 | 28 | 0.0 | 0.0 | 0.00 | 0.58 | 0.00 | 97 | 1011.1 |
| 20260905060519 | 71 | 28 | 0.0 | 0.0 | 0.00 | 0.58 | 0.00 | 97 | 1011.2 |
| 20260905060152 | 71 | 28 | 0.0 | 0.0 | 0.00 | 0.58 | 0.00 | 97 | 1011.3 |
| 20260905060045 | 71 | 28 | 0.0 | 0.0 | 0.00 | 0.58 | 0.00 | 97 | 1011.3 |
| 20260905055939 | 71 | 28 | 0.0 | 0.0 | 0.00 | 0.58 | 0.00 | 97 | 1011.3 |
| 20260905055834 | 71 | 28 | 0.0 | 0.0 | 0.00 | 0.58 | 0.00 | 97 | 1011.3 |
| 20260905055513 | 71 | 28 | 0.0 | 0.0 | 0.00 | 0.58 | 0.00 | 97 | 1011.3 |
| 20260905055410 | 71 | 28 | 0.0 | 0.0 | 0.00 | 0.58 | 0.00 | 97 | 1011.4 |
| 20260905055307 | 71 | 28 | 0.0 | 0.0 | 0.00 | 0.58 | 0.00 | 97 | 1011.3 |
| 20260905055159 | 71 | 28 | 0.0 | 0.0 | 0.00 | 0.58 | 0.00 | 97 | 1011.3 |
| 20260905054840 | 71 | 28 | 0.0 | 0.0 | 0.00 | 0.58 | 0.00 | 97 | 1011.3 |
| 20260905054736 | 71 | 28 | 0.0 | 0.0 | 0.00 | 0.58 | 0.00 | 97 | 1011.3 |
| 20260905054632 | 71 | 28 | 0.0 | 0.0 | 0.00 | 0.58 | 0.00 | 97 | 1011.3 |
| 20260905054527 | 71 | 28 | 0.0 | 0.0 | 0.00 | 0.58 | 0.00 | 97 | 1011.3 |
| 20260905054420 | 71 | 28 | 0.0 | 0.0 | 0.00 | 0.58 | 0.00 | 97 | 1011.3 |
| 20260905054316 | 71 | 28 | 0.0 | 0.0 | 0.00 | 0.58 | 0.00 | 97 | 1011.3 |
| 20260905053950 | 71 | 28 | 0.0 | 0.0 | 0.00 | 0.58 | 0.00 | 97 | 1011.4 |
| 20260905053845 | 71 | 28 | 0.0 | 0.0 | 0.00 | 0.58 | 0.00 | 97 | 1011.4 |
| 20260905053742 | 71 | 28 | 0.0 | 0.0 | 0.00 | 0.58 | 0.00 | 97 | 1011.4 |
| 20260905053416 | 71 | 28 | 0.0 | 0.0 | 0.00 | 0.58 | 0.00 | 97 | 1011.5 |
| 20260905053312 | 71 | 28 | 0.0 | 0.0 | 0.00 | 0.58 | 0.00 | 97 | 1011.4 |
| 20260905053207 | 71 | 28 | 0.0 | 0.0 | 0.00 | 0.58 | 0.00 | 97 | 1011.5 |
| 20260905053101 | 71 | 28 | 0.0 | 0.0 | 0.00 | 0.58 | 0.00 | 97 | 1011.5 |
| 20260905052958 | 71 | 28 | 0.0 | 0.0 | 0.00 | 0.58 | 0.00 | 97 | 1011.5 |
| 20260905052637 | 71 | 28 | 0.0 | 0.0 | 0.00 | 0.58 | 0.00 | 97 | 1011.5 |
| 20260905052532 | 71 | 28 | 0.0 | 0.0 | 0.00 | 0.58 | 0.00 | 97 | 1011.5 |
| 20260905052427 | 71 | 28 | 0.0 | 0.0 | 0.00 | 0.58 | 0.00 | 97 | 1011.5 |
| 20260905052323 | 71 | 28 | 0.0 | 0.0 | 0.00 | 0.58 | 0.00 | 97 | 1011.6 |
| 20260905052219 | 71 | 28 | 0.0 | 0.0 | 0.00 | 0.58 | 0.00 | 97 | 1011.5 |
| 20260905051853 | 71 | 28 | 0.0 | 0.0 | 0.00 | 0.58 | 0.00 | 97 | 1011.6 |
| 20260905051746 | 71 | 28 | 0.0 | 0.0 | 0.00 | 0.58 | 0.00 | 97 | 1011.6 |
| 20260905051642 | 71 | 28 | 0.0 | 0.0 | 0.00 | 0.58 | 0.00 | 97 | 1011.6 |
| 20260905051536 | 71 | 28 | 0.0 | 0.0 | 0.00 | 0.59 | 0.00 | 97 | 1011.6 |
| 20260905051432 | 71 | 28 | 0.0 | 0.0 | 0.00 | 0.59 | 0.00 | 97 | 1011.6 |
| 20260905051329 | 71 | 28 | 0.0 | 0.0 | 0.00 | 0.59 | 0.00 | 97 | 1011.6 |
| 20260905051221 | 71 | 28 | 0.0 | 0.0 | 0.00 | 0.59 | 0.00 | 97 | 1011.6 |
| 20260905051115 | 71 | 28 | 0.0 | 0.0 | 0.00 | 0.60 | 0.00 | 97 | 1011.6 |
| 20260905051009 | 71 | 28 | 0.0 | 0.0 | 0.00 | 0.60 | 0.00 | 97 | 1011.6 |
| 20260905050904 | 71 | 28 | 0.0 | 0.0 | 0.00 | 0.60 | 0.00 | 97 | 1011.6 |
| 20260905050541 | 71 | 28 | 0.0 | 0.0 | 0.00 | 0.61 | 0.00 | 97 | 1011.6 |
| 20260905050434 | 71 | 28 | 0.0 | 0.0 | 0.00 | 0.61 | 0.00 | 97 | 1011.7 |
| 20260905050328 | 71 | 28 | 0.0 | 0.0 | 0.00 | 0.61 | 0.00 | 97 | 1011.6 |
| 20260905050002 | 71 | 28 | 0.0 | 0.0 | 0.00 | 0.61 | 0.00 | 97 | 1011.8 |
| 20260905045855 | 71 | 28 | 0.0 | 0.0 | 0.00 | 0.61 | 0.00 | 97 | 1011.8 |
| 20260905045749 | 71 | 28 | 0.0 | 0.0 | 0.00 | 0.61 | 0.00 | 97 | 1011.8 |
| 20260905045647 | 71 | 28 | 0.0 | 0.0 | 0.00 | 0.61 | 0.00 | 97 | 1011.8 |
| 20260905045540 | 71 | 28 | 0.0 | 2.0 | 0.00 | 0.61 | 0.00 | 97 | 1011.8 |
| 20260905045435 | 71 | 28 | 0.0 | 2.0 | 0.00 | 0.61 | 0.00 | 97 | 1011.8 |
| 20260905045326 | 71 | 28 | 0.0 | 2.0 | 0.00 | 0.61 | 0.00 | 97 | 1011.8 |
| 20260905044955 | 71 | 209 | 0.0 | 2.0 | 0.00 | 0.61 | 0.00 | 97 | 1011.8 |
| 20260905044853 | 71 | 64 | 0.0 | 1.0 | 0.00 | 0.61 | 0.00 | 97 | 1011.8 |
| 20260905044750 | 71 | 150 | 0.0 | 1.0 | 0.00 | 0.61 | 0.00 | 97 | 1011.9 |
| 20260905044644 | 71 | 271 | 0.0 | 1.0 | 0.00 | 0.61 | 0.00 | 97 | 1011.9 |
| 20260905044536 | 71 | 329 | 0.0 | 1.0 | 0.00 | 0.61 | 0.00 | 97 | 1011.8 |
| 20260905044434 | 71 | 252 | 0.0 | 2.0 | 0.00 | 0.62 | 0.00 | 97 | 1011.8 |
| 20260905044328 | 71 | 252 | 0.0 | 2.0 | 0.00 | 0.62 | 0.00 | 97 | 1011.9 |
| 20260905044225 | 71 | 252 | 0.0 | 2.0 | 0.00 | 0.63 | 0.00 | 97 | 1011.9 |
| 20260905044118 | 71 | 165 | 0.0 | 2.0 | 0.00 | 0.64 | 0.00 | 97 | 1011.9 |
| 20260905044014 | 71 | 198 | 0.0 | 2.0 | 0.00 | 0.66 | 0.00 | 97 | 1011.9 |
| 20260905043912 | 71 | 73 | 0.0 | 2.0 | 0.00 | 0.66 | 0.00 | 97 | 1011.9 |
| 20260905043808 | 71 | 73 | 0.0 | 2.0 | 0.00 | 0.66 | 0.00 | 97 | 1011.9 |
| 20260905043702 | 71 | 251 | 0.0 | 2.0 | 0.00 | 0.66 | 0.00 | 97 | 1012.0 |
| 20260905043600 | 71 | 251 | 0.0 | 2.0 | 0.00 | 0.66 | 0.00 | 97 | 1011.9 |
| 20260905043455 | 71 | 250 | 0.0 | 2.0 | 0.00 | 0.66 | 0.00 | 97 | 1011.9 |
| 20260905043350 | 71 | 250 | 0.0 | 2.0 | 0.00 | 0.66 | 0.00 | 97 | 1012.0 |
| 20260905043246 | 71 | 258 | 0.0 | 2.0 | 0.00 | 0.66 | 0.00 | 97 | 1012.0 |
| 20260905042923 | 71 | 284 | 0.0 | 2.0 | 0.00 | 0.66 | 0.00 | 97 | 1011.9 |
| 20260905042818 | 71 | 271 | 0.0 | 2.0 | 0.00 | 0.66 | 0.00 | 97 | 1011.9 |
| 20260905042713 | 71 | 286 | 0.0 | 1.0 | 0.00 | 0.66 | 0.00 | 97 | 1011.9 |
| 20260905042608 | 71 | 267 | 0.0 | 1.0 | 0.00 | 0.66 | 0.00 | 97 | 1011.8 |
| 20260905042500 | 71 | 267 | 0.0 | 1.0 | 0.00 | 0.66 | 0.00 | 97 | 1011.9 |
| 20260905042355 | 71 | 267 | 0.0 | 1.0 | 0.00 | 0.66 | 0.00 | 97 | 1011.9 |
| 20260905042031 | 71 | 280 | 0.0 | 1.0 | 0.00 | 0.66 | 0.00 | 97 | 1011.9 |
| 20260905041923 | 71 | 239 | 0.0 | 1.0 | 0.00 | 0.66 | 0.00 | 97 | 1011.9 |
| 20260905041819 | 71 | 148 | 0.0 | 1.0 | 0.00 | 0.66 | 0.00 | 97 | 1011.9 |
| 20260905041715 | 71 | 248 | 0.0 | 0.0 | 0.00 | 0.66 | 0.00 | 97 | 1012.0 |
| 20260905041609 | 71 | 248 | 0.0 | 1.0 | 0.00 | 0.66 | 0.00 | 97 | 1012.0 |
| 20260905041501 | 71 | 46 | 0.0 | 1.0 | 0.00 | 0.66 | 0.00 | 97 | 1012.1 |
| 20260905041355 | 71 | 0 | 0.0 | 1.0 | 0.00 | 0.68 | 0.00 | 97 | 1012.1 |
| 20260905041252 | 71 | 86 | 0.0 | 1.0 | 0.00 | 0.68 | 0.00 | 97 | 1012.2 |
| 20260905041143 | 71 | 170 | 0.0 | 1.0 | 0.00 | 0.68 | 0.00 | 97 | 1012.2 |
| 20260905041038 | 71 | 233 | 0.0 | 1.0 | 0.00 | 0.68 | 0.00 | 97 | 1012.2 |
| 20260905040712 | 71 | 142 | 0.0 | 0.0 | 0.00 | 0.68 | 0.00 | 97 | 1012.2 |
| 20260905040609 | 71 | 142 | 0.0 | 0.0 | 0.00 | 0.68 | 0.00 | 97 | 1012.2 |
| 20260905040244 | 71 | 142 | 0.0 | 0.0 | 0.00 | 0.68 | 0.00 | 97 | 1012.2 |
| 20260905035925 | 71 | 142 | 0.0 | 0.0 | 0.00 | 0.70 | 0.69 | 97 | 1012.2 |
| 20260905035818 | 71 | 142 | 0.0 | 0.0 | 0.00 | 0.71 | 0.69 | 97 | 1012.3 |
| 20260905035711 | 71 | 142 | 0.0 | 0.0 | 0.00 | 0.71 | 0.69 | 97 | 1012.3 |
| 20260905035604 | 71 | 142 | 0.0 | 0.0 | 0.00 | 0.71 | 0.69 | 97 | 1012.3 |
| 20260905035502 | 71 | 142 | 0.0 | 0.0 | 0.00 | 0.72 | 0.69 | 97 | 1012.3 |
| 20260905035357 | 71 | 142 | 0.0 | 0.0 | 0.00 | 0.73 | 0.69 | 97 | 1012.3 |
| 20260905035255 | 71 | 142 | 0.0 | 0.0 | 0.00 | 0.77 | 0.69 | 97 | 1012.3 |
| 20260905035149 | 71 | 142 | 0.0 | 0.0 | 0.00 | 0.79 | 0.69 | 97 | 1012.3 |
| 20260905035043 | 71 | 142 | 0.0 | 0.0 | 0.00 | 0.80 | 0.69 | 97 | 1012.3 |
| 20260905034937 | 71 | 142 | 0.0 | 0.0 | 0.00 | 0.81 | 0.69 | 97 | 1012.3 |
| 20260905034831 | 71 | 142 | 0.0 | 0.0 | 0.00 | 0.81 | 0.69 | 97 | 1012.3 |
| 20260905034502 | 71 | 142 | 0.0 | 0.0 | 0.00 | 0.81 | 0.69 | 97 | 1012.3 |
| 20260905034400 | 72 | 223 | 0.0 | 0.0 | 0.00 | 0.81 | 0.69 | 97 | 1012.3 |
| 20260905034031 | 72 | 243 | 0.0 | 0.0 | 0.00 | 0.81 | 0.69 | 97 | 1012.3 |
| 20260905033927 | 72 | 243 | 0.0 | 0.0 | 0.00 | 0.81 | 0.69 | 97 | 1012.3 |
| 20260905033820 | 72 | 243 | 0.0 | 0.0 | 0.00 | 0.81 | 0.69 | 97 | 1012.3 |
| 20260905033715 | 72 | 243 | 0.0 | 0.0 | 0.00 | 0.81 | 0.69 | 97 | 1012.3 |
| 20260905033608 | 72 | 243 | 0.0 | 0.0 | 0.00 | 0.81 | 0.69 | 97 | 1012.3 |
| 20260905033500 | 72 | 243 | 0.0 | 0.0 | 0.00 | 0.81 | 0.69 | 97 | 1012.3 |
| 20260905033353 | 72 | 243 | 0.0 | 0.0 | 0.00 | 0.81 | 0.69 | 97 | 1012.4 |
| 20260905033250 | 72 | 243 | 0.0 | 0.0 | 0.00 | 0.81 | 0.69 | 97 | 1012.4 |
| 20260905032703 | 72 | 243 | 0.0 | 0.0 | 0.00 | 0.81 | 0.69 | 97 | 1012.4 |
| 20260905032339 | 72 | 243 | 0.0 | 0.0 | 0.00 | 0.81 | 0.69 | 97 | 1012.4 |
| 20260905032233 | 72 | 243 | 0.0 | 0.0 | 0.00 | 0.81 | 0.69 | 97 | 1012.4 |
| 20260905032126 | 72 | 243 | 0.0 | 0.0 | 0.00 | 0.81 | 0.69 | 97 | 1012.4 |
| 20260905032022 | 72 | 243 | 0.0 | 0.0 | 0.00 | 0.81 | 0.69 | 97 | 1012.4 |
| 20260905031915 | 72 | 243 | 0.0 | 0.0 | 0.00 | 0.81 | 0.69 | 97 | 1012.3 |
| 20260905031808 | 72 | 243 | 0.0 | 0.0 | 0.00 | 0.81 | 0.69 | 97 | 1012.3 |
| 20260905031703 | 72 | 243 | 0.0 | 1.0 | 0.00 | 0.81 | 0.69 | 97 | 1012.3 |
| 20260905031559 | 72 | 243 | 0.0 | 1.0 | 0.00 | 0.81 | 0.69 | 97 | 1012.3 |
| 20260905031234 | 72 | 326 | 0.0 | 1.0 | 0.00 | 0.81 | 0.69 | 97 | 1012.3 |
| 20260905030909 | 72 | 326 | 0.0 | 0.0 | 0.00 | 0.81 | 0.69 | 97 | 1012.2 |
| 20260905030803 | 72 | 326 | 0.0 | 0.0 | 0.00 | 0.81 | 0.69 | 97 | 1012.3 |
| 20260905030701 | 72 | 326 | 0.0 | 0.0 | 0.00 | 0.81 | 0.69 | 97 | 1012.3 |
| 20260905030554 | 71 | 326 | 0.0 | 0.0 | 0.00 | 0.81 | 0.69 | 97 | 1012.3 |
| 20260905030448 | 72 | 326 | 0.0 | 0.0 | 0.00 | 0.81 | 0.69 | 97 | 1012.3 |
| 20260905030119 | 72 | 326 | 0.0 | 0.0 | 0.00 | 0.81 | 0.69 | 97 | 1012.3 |
| 20260905030013 | 72 | 326 | 0.0 | 0.0 | 0.00 | 0.81 | 0.69 | 97 | 1012.2 |
| 20260905025909 | 72 | 326 | 0.0 | 0.0 | 0.00 | 0.81 | 0.69 | 97 | 1012.3 |
| 20260905025806 | 72 | 326 | 0.0 | 0.0 | 0.00 | 0.81 | 0.69 | 97 | 1012.2 |
| 20260905025700 | 72 | 326 | 0.0 | 0.0 | 0.00 | 0.81 | 0.69 | 97 | 1012.2 |
| 20260905025554 | 72 | 326 | 0.0 | 0.0 | 0.00 | 0.81 | 0.69 | 97 | 1012.2 |
| 20260905025447 | 72 | 326 | 0.0 | 0.0 | 0.00 | 0.81 | 0.69 | 97 | 1012.2 |
| 20260905025342 | 72 | 326 | 0.0 | 0.0 | 0.00 | 0.81 | 0.69 | 97 | 1012.2 |
| 20260905024801 | 72 | 326 | 0.0 | 0.0 | 0.00 | 0.81 | 0.69 | 97 | 1012.3 |
| 20260905024440 | 72 | 326 | 0.0 | 0.0 | 0.00 | 0.81 | 0.69 | 97 | 1012.2 |
| 20260905024335 | 72 | 326 | 0.0 | 0.0 | 0.00 | 0.81 | 0.69 | 97 | 1012.2 |
| 20260905024233 | 72 | 326 | 0.0 | 0.0 | 0.00 | 0.81 | 0.69 | 97 | 1012.2 |
| 20260905024128 | 72 | 326 | 0.0 | 0.0 | 0.00 | 0.81 | 0.69 | 97 | 1012.2 |
| 20260905024022 | 72 | 326 | 0.0 | 0.0 | 0.00 | 0.81 | 0.69 | 97 | 1012.3 |
| 20260905023914 | 72 | 326 | 0.0 | 0.0 | 0.00 | 0.81 | 0.69 | 97 | 1012.3 |
| 20260905023809 | 72 | 326 | 0.0 | 0.0 | 0.00 | 0.82 | 0.69 | 97 | 1012.2 |
| 20260905023703 | 72 | 326 | 0.0 | 0.0 | 0.00 | 0.82 | 0.69 | 97 | 1012.3 |
| 20260905023555 | 72 | 326 | 0.0 | 0.0 | 0.00 | 0.82 | 0.69 | 97 | 1012.3 |
| 20260905023453 | 72 | 326 | 0.0 | 0.0 | 0.00 | 0.82 | 0.69 | 97 | 1012.3 |
| 20260905023345 | 72 | 326 | 0.0 | 0.0 | 0.00 | 0.82 | 0.69 | 97 | 1012.4 |
| 20260905023239 | 72 | 326 | 0.0 | 0.0 | 0.00 | 0.82 | 0.69 | 97 | 1012.4 |
| 20260905022919 | 72 | 326 | 0.0 | 0.0 | 0.00 | 0.82 | 0.69 | 97 | 1012.4 |
| 20260905022813 | 72 | 326 | 0.0 | 0.0 | 0.00 | 0.82 | 0.69 | 97 | 1012.4 |
| 20260905022706 | 72 | 326 | 0.0 | 0.0 | 0.00 | 0.82 | 0.69 | 97 | 1012.4 |
| 20260905022117 | 72 | 326 | 0.0 | 0.0 | 0.00 | 0.82 | 0.69 | 97 | 1012.3 |
| 20260905022012 | 72 | 326 | 0.0 | 0.0 | 0.00 | 0.82 | 0.69 | 97 | 1012.2 |
| 20260905021906 | 72 | 326 | 0.0 | 0.0 | 0.00 | 0.82 | 0.69 | 97 | 1012.2 |
| 20260905021801 | 72 | 326 | 0.0 | 0.0 | 0.00 | 0.82 | 0.69 | 97 | 1012.2 |
| 20260905021437 | 72 | 326 | 0.0 | 0.0 | 0.00 | 0.82 | 0.69 | 97 | 1012.1 |
| 20260905021335 | 72 | 326 | 0.0 | 0.0 | 0.00 | 0.82 | 0.69 | 97 | 1012.0 |
| 20260905021231 | 72 | 326 | 0.0 | 0.0 | 0.00 | 0.82 | 0.69 | 97 | 1012.0 |
| 20260905021128 | 72 | 326 | 0.0 | 0.0 | 0.00 | 0.82 | 0.69 | 97 | 1012.0 |
| 20260905021025 | 72 | 326 | 0.0 | 0.0 | 0.00 | 0.82 | 0.69 | 97 | 1011.9 |
| 20260905020919 | 72 | 326 | 0.0 | 0.0 | 0.00 | 0.82 | 0.69 | 97 | 1011.9 |
| 20260905020816 | 72 | 326 | 0.0 | 0.0 | 0.00 | 0.82 | 0.69 | 97 | 1011.8 |
| 20260905020710 | 72 | 326 | 0.0 | 0.0 | 0.00 | 0.82 | 0.69 | 97 | 1011.8 |
| 20260905020607 | 72 | 326 | 0.0 | 0.0 | 0.00 | 0.82 | 0.69 | 97 | 1011.8 |
| 20260905020501 | 72 | 326 | 0.0 | 0.0 | 0.00 | 0.82 | 0.69 | 97 | 1011.9 |
| 20260905020133 | 72 | 326 | 0.0 | 0.0 | 0.00 | 0.82 | 0.69 | 97 | 1011.9 |
| 20260905020028 | 72 | 326 | 0.0 | 0.0 | 0.00 | 0.82 | 0.69 | 97 | 1011.9 |
| 20260905015926 | 72 | 326 | 0.0 | 0.0 | 0.00 | 0.82 | 0.69 | 97 | 1011.9 |
| 20260905015824 | 72 | 326 | 0.0 | 0.0 | 0.00 | 0.82 | 0.69 | 97 | 1011.8 |
| 20260905015719 | 72 | 326 | 0.0 | 0.0 | 0.00 | 0.82 | 0.69 | 97 | 1011.8 |
| 20260905015613 | 72 | 326 | 0.0 | 0.0 | 0.00 | 0.82 | 0.69 | 97 | 1011.9 |
| 20260905015511 | 72 | 326 | 0.0 | 0.0 | 0.00 | 0.82 | 0.69 | 97 | 1011.9 |
| 20260905015408 | 72 | 326 | 0.0 | 0.0 | 0.00 | 0.82 | 0.69 | 97 | 1011.9 |
| 20260905015306 | 72 | 326 | 0.0 | 0.0 | 0.00 | 0.82 | 0.69 | 97 | 1011.9 |
| 20260905015155 | 72 | 326 | 0.0 | 0.0 | 0.00 | 0.82 | 0.69 | 97 | 1011.8 |
| 20260905015052 | 72 | 326 | 0.0 | 0.0 | 0.00 | 0.82 | 0.69 | 97 | 1011.8 |
| 20260905014946 | 72 | 326 | 0.0 | 0.0 | 0.00 | 0.82 | 0.69 | 97 | 1011.8 |
| 20260905014841 | 72 | 326 | 0.0 | 0.0 | 0.00 | 0.82 | 0.69 | 97 | 1011.8 |
| 20260905014734 | 72 | 326 | 0.0 | 0.0 | 0.00 | 0.82 | 0.69 | 97 | 1011.7 |
| 20260905014631 | 72 | 325 | 0.0 | 0.0 | 0.00 | 0.82 | 0.69 | 97 | 1011.7 |
| 20260905014528 | 72 | 326 | 0.0 | 0.0 | 0.00 | 0.82 | 0.69 | 97 | 1011.7 |
| 20260905014424 | 72 | 326 | 0.0 | 0.0 | 0.00 | 0.82 | 0.69 | 97 | 1011.7 |
| 20260905014316 | 72 | 326 | 0.0 | 0.0 | 0.00 | 0.82 | 0.69 | 97 | 1011.6 |
| 20260905014214 | 72 | 326 | 0.0 | 0.0 | 0.00 | 0.82 | 0.69 | 97 | 1011.7 |
| 20260905014111 | 72 | 325 | 0.0 | 0.0 | 0.00 | 0.82 | 0.69 | 97 | 1011.7 |
| 20260905014009 | 72 | 326 | 0.0 | 0.0 | 0.00 | 0.82 | 0.69 | 97 | 1011.7 |
| 20260905013906 | 72 | 326 | 0.0 | 0.0 | 0.00 | 0.82 | 0.69 | 97 | 1011.7 |
| 20260905013804 | 72 | 326 | 0.0 | 0.0 | 0.00 | 0.82 | 0.69 | 97 | 1011.7 |
| 20260905013701 | 72 | 326 | 0.0 | 0.0 | 0.00 | 0.82 | 0.69 | 97 | 1011.7 |
| 20260905013557 | 72 | 326 | 0.0 | 0.0 | 0.00 | 0.82 | 0.69 | 97 | 1011.8 |
| 20260905013450 | 72 | 326 | 0.0 | 0.0 | 0.00 | 0.82 | 0.69 | 97 | 1011.8 |
| 20260905013127 | 72 | 326 | 0.0 | 0.0 | 0.00 | 0.82 | 0.69 | 97 | 1011.8 |
| 20260905013023 | 72 | 326 | 0.0 | 0.0 | 0.00 | 0.82 | 0.69 | 97 | 1011.7 |
| 20260905012921 | 72 | 326 | 0.0 | 0.0 | 0.00 | 0.82 | 0.69 | 97 | 1011.6 |
| 20260905012334 | 72 | 326 | 0.0 | 0.0 | 0.00 | 0.82 | 0.69 | 97 | 1011.5 |
| 20260905012013 | 72 | 326 | 0.0 | 0.0 | 0.00 | 0.82 | 0.69 | 97 | 1011.5 |
| 20260905011907 | 72 | 326 | 0.0 | 0.0 | 0.00 | 0.82 | 0.69 | 97 | 1011.5 |
| 20260905011804 | 72 | 326 | 0.0 | 0.0 | 0.00 | 0.82 | 0.69 | 97 | 1011.4 |
| 20260905011700 | 72 | 326 | 0.0 | 0.0 | 0.00 | 0.82 | 0.69 | 97 | 1011.4 |
| 20260905011337 | 72 | 326 | 0.0 | 0.0 | 0.00 | 0.82 | 0.69 | 97 | 1011.3 |
| 20260905011232 | 72 | 326 | 0.0 | 0.0 | 0.00 | 0.82 | 0.69 | 97 | 1011.2 |
| 20260905010909 | 72 | 326 | 0.0 | 0.0 | 0.00 | 0.82 | 0.69 | 97 | 1011.1 |
| 20260905010806 | 72 | 326 | 0.0 | 0.0 | 0.00 | 0.82 | 0.69 | 97 | 1011.0 |
| 20260905010659 | 72 | 325 | 0.0 | 0.0 | 0.00 | 0.82 | 0.69 | 97 | 1011.0 |
| 20260905010553 | 72 | 326 | 0.0 | 0.0 | 0.00 | 0.82 | 0.69 | 97 | 1011.0 |
| 20260905010451 | 72 | 326 | 0.0 | 0.0 | 0.00 | 0.82 | 0.69 | 97 | 1011.0 |
| 20260905010347 | 72 | 326 | 0.0 | 0.0 | 0.00 | 0.82 | 0.69 | 97 | 1011.0 |
| 20260905010244 | 72 | 326 | 0.0 | 0.0 | 0.00 | 0.82 | 0.69 | 97 | 1011.1 |
| 20260905010140 | 72 | 326 | 0.0 | 0.0 | 0.00 | 0.82 | 0.69 | 97 | 1011.0 |
| 20260905005814 | 72 | 326 | 0.0 | 0.0 | 0.00 | 0.82 | 0.69 | 97 | 1011.0 |
| 20260905005709 | 72 | 326 | 0.0 | 0.0 | 0.00 | 0.82 | 0.69 | 97 | 1011.0 |
| 20260905005346 | 73 | 326 | 0.0 | 0.0 | 0.00 | 0.82 | 0.69 | 97 | 1011.1 |
| 20260905005240 | 73 | 326 | 0.0 | 0.0 | 0.00 | 0.82 | 0.69 | 97 | 1011.1 |
| 20260905005137 | 73 | 326 | 0.0 | 0.0 | 0.00 | 0.82 | 0.69 | 97 | 1011.1 |
| 20260905005036 | 73 | 326 | 0.0 | 0.0 | 0.00 | 0.82 | 0.69 | 97 | 1011.2 |
| 20260905004933 | 72 | 283 | 0.0 | 0.0 | 0.00 | 0.82 | 0.69 | 97 | 1011.1 |
| 20260905004830 | 73 | 289 | 0.0 | 0.0 | 0.00 | 0.82 | 0.69 | 97 | 1011.1 |
| 20260905004505 | 73 | 289 | 0.0 | 0.0 | 0.00 | 0.82 | 0.69 | 97 | 1011.0 |
| 20260905004358 | 73 | 289 | 0.0 | 1.0 | 0.00 | 0.82 | 0.69 | 97 | 1011.1 |
| 20260905004255 | 73 | 289 | 0.0 | 1.0 | 0.00 | 0.82 | 0.69 | 97 | 1011.0 |
| 20260905004152 | 73 | 289 | 0.0 | 1.0 | 0.00 | 0.82 | 0.69 | 97 | 1011.1 |
| 20260905004048 | 73 | 289 | 0.0 | 1.0 | 0.00 | 0.82 | 0.69 | 97 | 1011.1 |
| 20260905003943 | 73 | 289 | 0.0 | 1.0 | 0.00 | 0.82 | 0.69 | 97 | 1011.1 |
| 20260905003836 | 73 | 289 | 0.0 | 1.0 | 0.00 | 0.82 | 0.69 | 97 | 1011.2 |
| 20260905003732 | 73 | 289 | 0.0 | 1.0 | 0.00 | 0.82 | 0.69 | 97 | 1011.3 |
| 20260905003625 | 73 | 289 | 0.0 | 1.0 | 0.00 | 0.82 | 0.69 | 97 | 1011.3 |
| 20260905003258 | 73 | 289 | 0.0 | 1.0 | 0.00 | 0.82 | 0.69 | 97 | 1011.4 |
| 20260905003151 | 73 | 289 | 0.0 | 1.0 | 0.00 | 0.82 | 0.69 | 97 | 1011.4 |
| 20260905002827 | 73 | 66 | 0.0 | 0.0 | 0.00 | 0.82 | 0.69 | 97 | 1011.4 |
| 20260905002248 | 73 | 66 | 0.0 | 0.0 | 0.00 | 0.82 | 0.69 | 97 | 1011.2 |
| 20260905002146 | 73 | 66 | 0.0 | 0.0 | 0.00 | 0.82 | 0.69 | 97 | 1011.2 |
| 20260905001823 | 73 | 66 | 0.0 | 0.0 | 0.00 | 0.82 | 0.69 | 97 | 1011.1 |
| 20260905001719 | 73 | 66 | 0.0 | 0.0 | 0.00 | 0.82 | 0.69 | 97 | 1011.1 |
| 20260905001611 | 73 | 66 | 0.0 | 0.0 | 0.00 | 0.82 | 0.69 | 97 | 1011.0 |
| 20260905001505 | 73 | 66 | 0.0 | 0.0 | 0.00 | 0.82 | 0.69 | 97 | 1011.0 |
| 20260905001400 | 73 | 66 | 0.0 | 0.0 | 0.00 | 0.82 | 0.69 | 97 | 1011.0 |
| 20260905001252 | 73 | 66 | 0.0 | 0.0 | 0.00 | 0.82 | 0.69 | 97 | 1011.0 |
| 20260905000929 | 73 | 66 | 0.0 | 0.0 | 0.00 | 0.82 | 0.69 | 97 | 1011.0 |
| 20260905000827 | 73 | 66 | 0.0 | 0.0 | 0.00 | 0.82 | 0.69 | 97 | 1011.1 |
| 20260905000722 | 73 | 66 | 0.0 | 0.0 | 0.00 | 0.82 | 0.69 | 97 | 1011.1 |
| 20260905000617 | 73 | 66 | 0.0 | 0.0 | 0.00 | 0.82 | 0.69 | 97 | 1011.1 |
| 20260905000512 | 73 | 66 | 0.0 | 0.0 | 0.00 | 0.82 | 0.69 | 97 | 1011.1 |
| 20260905000145 | 73 | 66 | 0.0 | 0.0 | 0.00 | 0.82 | 0.69 | 97 | 1011.0 |
| 20260905000041 | 73 | 66 | 0.0 | 0.0 | 0.00 | 0.82 | 0.69 | 97 | 1011.0 |
| 20260904235456 | 73 | 66 | 0.0 | 0.0 | 0.00 | 0.82 | 0.69 | 97 | 1011.2 |
| 20260904235350 | 73 | 66 | 0.0 | 0.0 | 0.00 | 0.82 | 0.69 | 97 | 1011.2 |
| 20260904235246 | 73 | 66 | 0.0 | 0.0 | 0.00 | 0.82 | 0.69 | 97 | 1011.2 |
| 20260904234923 | 73 | 66 | 0.0 | 0.0 | 0.00 | 0.82 | 0.69 | 97 | 1011.2 |
| 20260904234819 | 73 | 66 | 0.0 | 0.0 | 0.00 | 0.82 | 0.69 | 97 | 1011.1 |
| 20260904234714 | 73 | 66 | 0.0 | 0.0 | 0.00 | 0.82 | 0.69 | 97 | 1011.1 |
| 20260904234607 | 73 | 66 | 0.0 | 0.0 | 0.00 | 0.82 | 0.69 | 97 | 1011.1 |
| 20260904234504 | 73 | 66 | 0.0 | 0.0 | 0.00 | 0.82 | 0.69 | 97 | 1011.1 |
| 20260904233922 | 73 | 66 | 0.0 | 0.0 | 0.00 | 0.82 | 0.69 | 97 | 1011.3 |
| 20260904233818 | 73 | 66 | 0.0 | 0.0 | 0.00 | 0.82 | 0.69 | 97 | 1011.3 |
| 20260904233450 | 73 | 66 | 0.0 | 0.0 | 0.00 | 0.82 | 0.69 | 97 | 1011.3 |
| 20260904233344 | 73 | 66 | 0.0 | 0.0 | 0.00 | 0.82 | 0.69 | 97 | 1011.3 |
| 20260904233238 | 73 | 66 | 0.0 | 0.0 | 0.00 | 0.82 | 0.69 | 97 | 1011.3 |
| 20260904233132 | 73 | 66 | 0.0 | 0.0 | 0.00 | 0.82 | 0.69 | 97 | 1011.3 |
| 20260904233029 | 73 | 66 | 0.0 | 0.0 | 0.00 | 0.82 | 0.69 | 97 | 1011.3 |
| 20260904232921 | 73 | 66 | 0.0 | 0.0 | 0.00 | 0.82 | 0.69 | 97 | 1011.4 |
| 20260904232818 | 73 | 66 | 0.0 | 0.0 | 0.00 | 0.82 | 0.69 | 97 | 1011.4 |
| 20260904232450 | 73 | 66 | 0.0 | 0.0 | 0.00 | 0.82 | 0.69 | 97 | 1011.5 |
| 20260904232345 | 73 | 66 | 0.0 | 0.0 | 0.00 | 0.82 | 0.69 | 97 | 1011.5 |
| 20260904232239 | 73 | 66 | 0.0 | 0.0 | 0.00 | 0.82 | 0.69 | 97 | 1011.5 |
| 20260904232136 | 73 | 66 | 0.0 | 0.0 | 0.00 | 0.82 | 0.69 | 97 | 1011.5 |
| 20260904232029 | 73 | 66 | 0.0 | 0.0 | 0.00 | 0.82 | 0.69 | 97 | 1011.5 |
| 20260904231925 | 73 | 66 | 0.0 | 0.0 | 0.00 | 0.82 | 0.69 | 97 | 1011.4 |
| 20260904231823 | 73 | 66 | 0.0 | 0.0 | 0.00 | 0.82 | 0.69 | 97 | 1011.4 |
| 20260904231720 | 73 | 66 | 0.0 | 0.0 | 0.00 | 0.82 | 0.69 | 97 | 1011.4 |
| 20260904231613 | 73 | 66 | 0.0 | 0.0 | 0.00 | 0.82 | 0.69 | 97 | 1011.3 |
| 20260904231508 | 73 | 66 | 0.0 | 0.0 | 0.00 | 0.82 | 0.69 | 97 | 1011.3 |
| 20260904231402 | 73 | 66 | 0.0 | 0.0 | 0.00 | 0.82 | 0.69 | 97 | 1011.2 |
| 20260904231038 | 73 | 157 | 0.0 | 0.0 | 0.00 | 0.82 | 0.69 | 97 | 1011.2 |
| 20260904230711 | 73 | 157 | 0.0 | 1.0 | 0.00 | 0.82 | 0.69 | 97 | 1011.4 |
| 20260904230604 | 73 | 157 | 0.0 | 1.0 | 0.00 | 0.82 | 0.69 | 97 | 1011.4 |
| 20260904230459 | 73 | 157 | 0.0 | 1.0 | 0.00 | 0.82 | 0.69 | 97 | 1011.5 |
| 20260904230356 | 73 | 157 | 0.0 | 1.0 | 0.00 | 0.82 | 0.69 | 97 | 1011.5 |
| 20260904230254 | 73 | 72 | 0.0 | 0.0 | 0.00 | 0.82 | 0.69 | 97 | 1011.5 |
| 20260904230147 | 73 | 99 | 0.0 | 0.0 | 0.00 | 0.82 | 0.69 | 97 | 1011.4 |
| 20260904230042 | 73 | 5 | 0.0 | 0.0 | 0.00 | 0.82 | 0.69 | 97 | 1011.4 |
| 20260904225935 | 72 | 274 | 0.0 | 0.0 | 0.00 | 0.82 | 0.69 | 97 | 1011.4 |
| 20260904225832 | 72 | 274 | 0.0 | 0.0 | 0.00 | 0.82 | 0.69 | 97 | 1011.4 |
| 20260904225727 | 72 | 274 | 0.0 | 0.0 | 0.00 | 0.82 | 0.69 | 97 | 1011.3 |
| 20260904225620 | 72 | 274 | 0.0 | 0.0 | 0.00 | 0.82 | 0.69 | 97 | 1011.2 |
| 20260904225039 | 72 | 71 | 0.0 | 0.0 | 0.00 | 0.82 | 0.69 | 97 | 1011.0 |
| 20260904224937 | 72 | 88 | 0.0 | 0.0 | 0.00 | 0.82 | 0.69 | 97 | 1010.9 |
| 20260904224616 | 72 | 88 | 0.0 | 0.0 | 0.00 | 0.82 | 0.69 | 97 | 1010.8 |
| 20260904224251 | 72 | 88 | 0.0 | 0.0 | 0.00 | 0.82 | 0.69 | 97 | 1011.1 |
| 20260904224144 | 72 | 24 | 0.0 | 0.0 | 0.00 | 0.82 | 0.69 | 97 | 1011.1 |
| 20260904224040 | 72 | 24 | 0.0 | 0.0 | 0.00 | 0.82 | 0.69 | 97 | 1011.2 |
| 20260904223720 | 72 | 24 | 0.0 | 0.0 | 0.00 | 0.82 | 0.69 | 97 | 1011.2 |
| 20260904223618 | 72 | 24 | 0.0 | 0.0 | 0.00 | 0.82 | 0.69 | 97 | 1011.1 |
| 20260904223512 | 72 | 24 | 0.0 | 0.0 | 0.00 | 0.82 | 0.69 | 97 | 1011.0 |
| 20260904223407 | 72 | 24 | 0.0 | 0.0 | 0.00 | 0.82 | 0.69 | 97 | 1011.0 |
| 20260904223303 | 72 | 24 | 0.0 | 0.0 | 0.00 | 0.82 | 0.69 | 97 | 1010.9 |
| 20260904223155 | 72 | 24 | 0.0 | 0.0 | 0.00 | 0.82 | 0.69 | 97 | 1010.9 |
| 20260904223047 | 72 | 24 | 0.0 | 0.0 | 0.00 | 0.82 | 0.69 | 97 | 1010.9 |
| 20260904222942 | 72 | 24 | 0.0 | 0.0 | 0.00 | 0.82 | 0.69 | 97 | 1010.9 |
| 20260904222834 | 72 | 24 | 0.0 | 0.0 | 0.00 | 0.82 | 0.69 | 97 | 1011.0 |
| 20260904222512 | 72 | 24 | 0.0 | 0.0 | 0.00 | 0.82 | 0.69 | 97 | 1011.0 |
| 20260904222405 | 72 | 24 | 0.0 | 0.0 | 0.00 | 0.82 | 0.69 | 97 | 1011.1 |
| 20260904222306 | 72 | 24 | 0.0 | 0.0 | 0.00 | 0.82 | 0.69 | 97 | 1011.1 |
| 20260904222157 | 72 | 24 | 0.0 | 0.0 | 0.00 | 0.82 | 0.69 | 97 | 1011.1 |
| 20260904222049 | 72 | 24 | 0.0 | 0.0 | 0.00 | 0.82 | 0.69 | 97 | 1011.1 |
| 20260904221944 | 72 | 24 | 0.0 | 0.0 | 0.00 | 0.82 | 0.69 | 97 | 1011.1 |
| 20260904221839 | 72 | 24 | 0.0 | 0.0 | 0.00 | 0.82 | 0.69 | 97 | 1011.0 |
| 20260904221733 | 72 | 24 | 0.0 | 0.0 | 0.00 | 0.82 | 0.69 | 97 | 1011.0 |
| 20260904221628 | 72 | 24 | 0.0 | 0.0 | 0.00 | 0.82 | 0.69 | 97 | 1011.0 |
| 20260904221520 | 72 | 24 | 0.0 | 0.0 | 0.00 | 0.82 | 0.69 | 97 | 1011.0 |
| 20260904221414 | 72 | 24 | 0.0 | 0.0 | 0.00 | 0.82 | 0.69 | 97 | 1011.0 |
| 20260904221311 | 72 | 24 | 0.0 | 0.0 | 0.00 | 0.82 | 0.69 | 97 | 1011.0 |
| 20260904221207 | 72 | 24 | 0.0 | 0.0 | 0.00 | 0.82 | 0.69 | 97 | 1011.0 |
| 20260904221059 | 72 | 24 | 0.0 | 0.0 | 0.00 | 0.82 | 0.69 | 97 | 1011.1 |
| 20260904220515 | 72 | 54 | 0.0 | 2.0 | 0.00 | 0.82 | 0.69 | 97 | 1011.4 |
| 20260904220411 | 72 | 54 | 0.0 | 2.0 | 0.00 | 0.82 | 0.69 | 97 | 1011.4 |
| 20260904220308 | 72 | 167 | 0.0 | 0.0 | 0.00 | 0.82 | 0.69 | 97 | 1011.4 |
| 20260904215725 | 72 | 167 | 0.0 | 0.0 | 0.00 | 0.82 | 0.69 | 97 | 1011.6 |
| 20260904215620 | 72 | 167 | 0.0 | 0.0 | 0.00 | 0.82 | 0.69 | 97 | 1011.7 |
| 20260904215517 | 72 | 167 | 0.0 | 0.0 | 0.00 | 0.82 | 0.69 | 97 | 1011.7 |
| 20260904215411 | 72 | 167 | 0.0 | 0.0 | 0.00 | 0.82 | 0.69 | 97 | 1011.8 |
| 20260904215305 | 72 | 161 | 0.0 | 0.0 | 0.00 | 0.82 | 0.69 | 97 | 1011.9 |
| 20260904215156 | 71 | 161 | 0.0 | 0.0 | 0.00 | 0.82 | 0.69 | 97 | 1012.0 |
| 20260904215051 | 72 | 196 | 0.0 | 0.0 | 0.00 | 0.82 | 0.69 | 97 | 1012.0 |
| 20260904214947 | 72 | 107 | 0.0 | 0.0 | 0.00 | 0.82 | 0.69 | 97 | 1012.0 |
| 20260904214402 | 71 | 171 | 0.0 | 1.0 | 0.00 | 0.82 | 0.69 | 97 | 1012.1 |
| 20260904214259 | 71 | 106 | 0.0 | 0.0 | 0.00 | 0.82 | 0.69 | 97 | 1012.1 |
| 20260904213931 | 71 | 252 | 0.0 | 1.0 | 0.00 | 0.82 | 0.69 | 97 | 1012.2 |
| 20260904213823 | 71 | 252 | 0.0 | 1.0 | 0.00 | 0.82 | 0.69 | 97 | 1012.2 |
| 20260904213455 | 71 | 197 | 0.0 | 1.0 | 0.00 | 0.82 | 0.69 | 97 | 1012.1 |
| 20260904213348 | 71 | 111 | 0.0 | 1.0 | 0.00 | 0.82 | 0.69 | 97 | 1012.1 |
| 20260904213019 | 71 | 215 | 0.0 | 1.0 | 0.00 | 0.82 | 0.69 | 97 | 1012.1 |
| 20260904212914 | 70 | 238 | 0.0 | 0.0 | 0.00 | 0.82 | 0.69 | 97 | 1012.1 |
| 20260904212808 | 70 | 238 | 0.0 | 0.0 | 0.00 | 0.82 | 0.69 | 97 | 1012.1 |
| 20260904212704 | 70 | 238 | 0.0 | 0.0 | 0.00 | 0.82 | 0.69 | 97 | 1012.1 |
| 20260904212340 | 70 | 238 | 0.0 | 0.0 | 0.00 | 0.82 | 0.69 | 96 | 1011.9 |
| 20260904212236 | 70 | 238 | 0.0 | 0.0 | 0.00 | 0.82 | 0.69 | 96 | 1011.8 |
| 20260904211909 | 70 | 238 | 0.0 | 0.0 | 0.00 | 0.82 | 0.69 | 97 | 1011.8 |
| 20260904211804 | 70 | 238 | 0.0 | 0.0 | 0.00 | 0.82 | 0.69 | 96 | 1011.9 |
| 20260904211657 | 70 | 238 | 0.0 | 0.0 | 0.00 | 0.82 | 0.69 | 96 | 1011.9 |
| 20260904211551 | 70 | 238 | 0.0 | 0.0 | 0.00 | 0.82 | 0.69 | 96 | 1012.0 |
| 20260904211446 | 70 | 238 | 0.0 | 1.0 | 0.00 | 0.82 | 0.69 | 96 | 1012.1 |
| 20260904211119 | 69 | 316 | 0.0 | 1.0 | 0.00 | 0.82 | 0.69 | 96 | 1012.0 |
| 20260904211013 | 69 | 316 | 0.0 | 1.0 | 0.00 | 0.82 | 0.69 | 96 | 1012.0 |
| 20260904210907 | 69 | 316 | 0.0 | 0.0 | 0.00 | 0.81 | 0.69 | 96 | 1012.0 |
| 20260904210804 | 69 | 316 | 0.0 | 0.0 | 0.00 | 0.81 | 0.69 | 96 | 1011.9 |
| 20260904210702 | 69 | 316 | 0.0 | 2.0 | 0.00 | 0.81 | 0.68 | 96 | 1011.8 |
| 20260904210558 | 69 | 316 | 0.0 | 2.0 | 0.00 | 0.81 | 0.68 | 96 | 1011.8 |
| 20260904210234 | 69 | 316 | 0.0 | 2.0 | 0.00 | 0.81 | 0.68 | 96 | 1011.7 |
| 20260904210128 | 69 | 316 | 0.0 | 2.0 | 0.00 | 0.81 | 0.68 | 96 | 1011.8 |
| 20260904210023 | 69 | 316 | 0.0 | 2.0 | 0.00 | 0.81 | 0.68 | 96 | 1011.8 |
| 20260904205917 | 69 | 316 | 0.0 | 2.0 | 0.00 | 0.81 | 0.68 | 96 | 1011.8 |
| 20260904205811 | 69 | 315 | 0.0 | 2.0 | 0.00 | 0.81 | 0.68 | 96 | 1011.8 |
| 20260904205705 | 69 | 316 | 0.0 | 1.0 | 0.00 | 0.81 | 0.68 | 96 | 1011.9 |
| 20260904205116 | 68 | 316 | 0.0 | 1.0 | 0.00 | 0.81 | 0.68 | 95 | 1012.2 |
| 20260904205010 | 68 | 316 | 0.0 | 1.0 | 0.00 | 0.81 | 0.68 | 95 | 1012.3 |
| 20260904204906 | 68 | 316 | 0.0 | 1.0 | 0.00 | 0.81 | 0.68 | 95 | 1012.3 |
| 20260904204759 | 68 | 316 | 0.0 | 1.0 | 0.00 | 0.81 | 0.68 | 95 | 1012.3 |
| 20260904204656 | 68 | 316 | 0.0 | 0.0 | 0.00 | 0.81 | 0.68 | 95 | 1012.3 |
| 20260904204549 | 68 | 316 | 0.0 | 0.0 | 0.00 | 0.81 | 0.68 | 95 | 1012.3 |
| 20260904204441 | 68 | 304 | 0.0 | 0.0 | 0.00 | 0.81 | 0.68 | 95 | 1012.3 |
| 20260904204336 | 68 | 304 | 0.0 | 2.0 | 0.00 | 0.81 | 0.68 | 95 | 1012.3 |
| 20260904204231 | 68 | 304 | 0.0 | 2.0 | 0.00 | 0.81 | 0.68 | 95 | 1012.4 |
| 20260904204128 | 68 | 23 | 0.0 | 2.0 | 0.04 | 0.81 | 0.68 | 95 | 1012.3 |
| 20260904204021 | 68 | 0 | 0.0 | 2.0 | 0.04 | 0.81 | 0.68 | 95 | 1012.4 |
| 20260904203916 | 68 | 304 | 0.0 | 2.0 | 0.04 | 0.81 | 0.68 | 95 | 1012.4 |
| 20260904203552 | 68 | 325 | 0.0 | 2.0 | 0.06 | 0.81 | 0.68 | 94 | 1011.9 |
| 20260904203446 | 69 | 180 | 0.0 | 1.0 | 0.06 | 0.81 | 0.68 | 95 | 1011.8 |
| 20260904203338 | 68 | 180 | 0.0 | 19.0 | 0.06 | 0.81 | 0.68 | 94 | 1011.7 |
| 20260904202753 | 69 | 180 | 1.0 | 19.0 | 0.21 | 0.81 | 0.68 | 94 | 1011.8 |
| 20260904202431 | 69 | 174 | 2.0 | 19.0 | 0.66 | 0.79 | 0.67 | 93 | 1012.1 |
| 20260904202326 | 69 | 174 | 2.0 | 19.0 | 0.77 | 0.78 | 0.66 | 92 | 1012.2 |
| 20260904201957 | 69 | 191 | 4.0 | 19.0 | 1.05 | 0.73 | 0.62 | 89 | 1012.5 |
| 20260904201411 | 72 | 128 | 5.0 | 19.0 | 4.40 | 0.52 | 0.46 | 86 | 1013.5 |
| 20260904201308 | 73 | 11 | 5.0 | 16.0 | 2.61 | 0.47 | 0.42 | 85 | 1014.1 |
| 20260904201003 | 77 | 225 | 4.0 | 16.0 | 2.40 | 0.33 | 0.27 | 82 | 1013.4 |
| 20260904200858 | 78 | 329 | 3.0 | 15.0 | 1.77 | 0.30 | 0.21 | 81 | 1013.3 |
| 20260904200530 | 81 | 294 | 2.0 | 14.0 | 0.00 | 0.24 | 0.10 | 80 | 1013.7 |
| 20260904200427 | 82 | 219 | 1.0 | 14.0 | 0.00 | 0.24 | 0.10 | 85 | 1013.9 |
| 20260904200325 | 82 | 323 | 1.0 | 9.0 | 0.00 | 0.24 | 0.10 | 86 | 1013.9 |
| 20260904200218 | 82 | 276 | 0.0 | 9.0 | 0.00 | 0.24 | 0.10 | 87 | 1013.8 |
| 20260904200112 | 82 | 285 | 0.0 | 3.0 | 0.00 | 0.24 | 0.10 | 85 | 1013.3 |
| 20260904200005 | 82 | 290 | 0.0 | 2.0 | 0.00 | 0.24 | 0.10 | 85 | 1012.5 |
| 20260904195637 | 82 | 327 | 0.0 | 1.0 | 0.00 | 0.24 | 0.10 | 84 | 1012.1 |
| 20260904195533 | 82 | 327 | 0.0 | 0.0 | 0.00 | 0.24 | 0.10 | 84 | 1012.0 |
| 20260904195430 | 82 | 327 | 0.0 | 0.0 | 0.00 | 0.24 | 0.10 | 84 | 1012.0 |
| 20260904195327 | 82 | 327 | 0.0 | 0.0 | 0.00 | 0.24 | 0.10 | 83 | 1012.0 |
| 20260904195003 | 82 | 327 | 0.0 | 0.0 | 0.00 | 0.24 | 0.10 | 85 | 1011.7 |
| 20260904194856 | 82 | 327 | 0.0 | 0.0 | 0.00 | 0.24 | 0.10 | 86 | 1011.7 |
| 20260904194303 | 83 | 327 | 0.0 | 0.0 | 0.00 | 0.24 | 0.10 | 85 | 1011.1 |
| 20260904194156 | 83 | 327 | 0.0 | 0.0 | 0.00 | 0.24 | 0.10 | 84 | 1011.1 |
| 20260904194050 | 83 | 327 | 0.0 | 0.0 | 0.00 | 0.24 | 0.10 | 83 | 1011.1 |
| 20260904193947 | 83 | 327 | 0.0 | 0.0 | 0.00 | 0.24 | 0.10 | 82 | 1011.1 |
| 20260904193844 | 83 | 327 | 0.0 | 0.0 | 0.00 | 0.24 | 0.10 | 83 | 1011.1 |
| 20260904193741 | 83 | 327 | 0.0 | 0.0 | 0.00 | 0.24 | 0.10 | 83 | 1011.1 |
| 20260904193634 | 84 | 327 | 0.0 | 0.0 | 0.00 | 0.24 | 0.10 | 83 | 1011.2 |
| 20260904193527 | 84 | 327 | 0.0 | 0.0 | 0.00 | 0.24 | 0.10 | 83 | 1011.3 |
| 20260904193203 | 84 | 327 | 0.0 | 0.0 | 0.00 | 0.24 | 0.10 | 82 | 1011.4 |
| 20260904192839 | 84 | 327 | 0.0 | 0.0 | 0.00 | 0.24 | 0.10 | 82 | 1011.4 |
| 20260904192737 | 84 | 327 | 0.0 | 0.0 | 0.00 | 0.24 | 0.10 | 81 | 1011.4 |
| 20260904192635 | 84 | 327 | 0.0 | 0.0 | 0.00 | 0.24 | 0.10 | 80 | 1011.5 |
| 20260904192310 | 84 | 327 | 0.0 | 1.0 | 0.00 | 0.24 | 0.10 | 80 | 1011.6 |
| 20260904192206 | 84 | 327 | 0.0 | 1.0 | 0.00 | 0.24 | 0.10 | 79 | 1011.7 |
| 20260904191841 | 84 | 327 | 0.0 | 1.0 | 0.00 | 0.24 | 0.10 | 77 | 1011.7 |
| 20260904191733 | 85 | 327 | 0.0 | 1.0 | 0.00 | 0.24 | 0.10 | 76 | 1011.7 |
| 20260904191630 | 85 | 327 | 0.0 | 0.0 | 0.00 | 0.24 | 0.10 | 76 | 1011.7 |
| 20260904191527 | 85 | 327 | 0.0 | 0.0 | 0.00 | 0.24 | 0.10 | 76 | 1011.6 |
| 20260904191422 | 85 | 327 | 0.0 | 0.0 | 0.00 | 0.24 | 0.10 | 76 | 1011.6 |
| 20260904191318 | 85 | 327 | 0.0 | 0.0 | 0.00 | 0.24 | 0.10 | 75 | 1011.6 |
| 20260904191213 | 85 | 327 | 0.0 | 0.0 | 0.00 | 0.24 | 0.10 | 75 | 1011.7 |
| 20260904191108 | 85 | 327 | 0.0 | 0.0 | 0.00 | 0.24 | 0.10 | 75 | 1011.6 |
| 20260904190741 | 86 | 327 | 0.0 | 1.0 | 0.00 | 0.24 | 0.10 | 74 | 1011.6 |
| 20260904190635 | 86 | 304 | 0.0 | 1.0 | 0.00 | 0.24 | 0.10 | 74 | 1011.6 |
| 20260904190533 | 86 | 216 | 0.0 | 1.0 | 0.00 | 0.24 | 0.10 | 73 | 1011.6 |
| 20260904190426 | 86 | 216 | 0.0 | 1.0 | 0.00 | 0.24 | 0.10 | 74 | 1011.6 |
| 20260904190322 | 86 | 216 | 0.0 | 1.0 | 0.00 | 0.24 | 0.10 | 73 | 1011.6 |
| 20260904185959 | 87 | 218 | 0.0 | 1.0 | 0.00 | 0.24 | 0.10 | 73 | 1011.5 |
| 20260904185853 | 87 | 157 | 0.0 | 1.0 | 0.00 | 0.24 | 0.10 | 73 | 1011.5 |
| 20260904185750 | 87 | 227 | 0.0 | 1.0 | 0.00 | 0.24 | 0.10 | 69 | 1011.4 |
| 20260904185642 | 87 | 274 | 0.0 | 1.0 | 0.00 | 0.24 | 0.10 | 70 | 1011.3 |
| 20260904185540 | 87 | 5 | 0.0 | 1.0 | 0.00 | 0.24 | 0.10 | 71 | 1011.3 |
| 20260904185432 | 87 | 5 | 0.0 | 1.0 | 0.00 | 0.24 | 0.10 | 69 | 1011.3 |
| 20260904185325 | 88 | 63 | 0.0 | 1.0 | 0.00 | 0.24 | 0.10 | 68 | 1011.3 |
| 20260904185220 | 88 | 177 | 0.0 | 1.0 | 0.00 | 0.24 | 0.10 | 68 | 1011.4 |
| 20260904185118 | 88 | 207 | 0.0 | 1.0 | 0.00 | 0.24 | 0.10 | 66 | 1011.3 |
| 20260904185013 | 88 | 209 | 0.0 | 1.0 | 0.00 | 0.24 | 0.10 | 67 | 1011.4 |
| 20260904184908 | 87 | 234 | 0.0 | 1.0 | 0.00 | 0.24 | 0.10 | 68 | 1011.5 |
| 20260904184803 | 87 | 40 | 0.0 | 1.0 | 0.00 | 0.24 | 0.10 | 69 | 1011.6 |
| 20260904184658 | 87 | 159 | 0.0 | 1.0 | 0.00 | 0.24 | 0.10 | 68 | 1011.6 |
| 20260904184555 | 88 | 193 | 0.0 | 1.0 | 0.00 | 0.24 | 0.10 | 70 | 1011.6 |
| 20260904184451 | 88 | 229 | 0.0 | 1.0 | 0.00 | 0.24 | 0.10 | 72 | 1011.7 |
| 20260904184344 | 88 | 228 | 0.0 | 1.0 | 0.00 | 0.24 | 0.10 | 72 | 1011.7 |
| 20260904184240 | 88 | 200 | 0.0 | 1.0 | 0.00 | 0.24 | 0.10 | 72 | 1011.8 |
| 20260904184136 | 88 | 262 | 0.0 | 1.0 | 0.00 | 0.24 | 0.10 | 68 | 1011.8 |
| 20260904184034 | 88 | 179 | 0.0 | 1.0 | 0.00 | 0.24 | 0.10 | 68 | 1011.8 |
| 20260904183930 | 88 | 222 | 0.0 | 1.0 | 0.00 | 0.24 | 0.10 | 66 | 1011.8 |
| 20260904183824 | 89 | 237 | 0.0 | 3.0 | 0.00 | 0.24 | 0.10 | 66 | 1011.8 |
| 20260904183715 | 89 | 264 | 0.0 | 3.0 | 0.00 | 0.24 | 0.10 | 66 | 1011.9 |
| 20260904183609 | 89 | 117 | 0.0 | 3.0 | 0.00 | 0.24 | 0.10 | 66 | 1011.9 |
| 20260904183506 | 88 | 78 | 0.0 | 3.0 | 0.00 | 0.24 | 0.10 | 65 | 1012.0 |
| 20260904183403 | 88 | 80 | 0.0 | 3.0 | 0.00 | 0.24 | 0.10 | 70 | 1012.0 |
| 20260904183258 | 88 | 54 | 0.0 | 3.0 | 0.00 | 0.24 | 0.10 | 75 | 1012.1 |
| 20260904183151 | 87 | 329 | 0.0 | 3.0 | 0.00 | 0.24 | 0.10 | 73 | 1012.1 |
| 20260904182830 | 87 | 355 | 0.0 | 3.0 | 0.00 | 0.24 | 0.10 | 74 | 1012.1 |
| 20260904182511 | 87 | 75 | 0.0 | 3.0 | 0.00 | 0.24 | 0.10 | 72 | 1012.1 |
| 20260904182408 | 87 | 160 | 0.0 | 3.0 | 0.00 | 0.24 | 0.10 | 71 | 1012.1 |
| 20260904182306 | 88 | 230 | 0.0 | 3.0 | 0.00 | 0.24 | 0.10 | 69 | 1012.2 |
| 20260904182203 | 88 | 355 | 0.0 | 3.0 | 0.00 | 0.24 | 0.10 | 68 | 1012.2 |
| 20260904182056 | 88 | 180 | 0.0 | 3.0 | 0.00 | 0.24 | 0.10 | 68 | 1012.2 |
| 20260904181952 | 88 | 69 | 0.0 | 3.0 | 0.00 | 0.24 | 0.10 | 71 | 1012.3 |
| 20260904181849 | 88 | 63 | 0.0 | 3.0 | 0.00 | 0.24 | 0.10 | 68 | 1012.3 |
| 20260904181747 | 88 | 267 | 0.0 | 2.0 | 0.00 | 0.24 | 0.10 | 69 | 1012.3 |
| 20260904181641 | 88 | 235 | 0.0 | 2.0 | 0.00 | 0.24 | 0.10 | 67 | 1012.3 |
| 20260904181315 | 88 | 131 | 0.0 | 2.0 | 0.00 | 0.24 | 0.10 | 65 | 1012.3 |
| 20260904181211 | 88 | 131 | 0.0 | 2.0 | 0.00 | 0.24 | 0.10 | 64 | 1012.4 |
| 20260904181108 | 89 | 120 | 0.0 | 2.0 | 0.00 | 0.24 | 0.10 | 63 | 1012.4 |
| 20260904181003 | 89 | 120 | 0.0 | 2.0 | 0.00 | 0.24 | 0.10 | 63 | 1012.5 |
| 20260904180900 | 89 | 117 | 0.0 | 2.0 | 0.00 | 0.24 | 0.10 | 63 | 1012.4 |
| 20260904180754 | 89 | 65 | 0.0 | 2.0 | 0.00 | 0.24 | 0.10 | 63 | 1012.5 |
| 20260904180425 | 88 | 49 | 0.0 | 2.0 | 0.00 | 0.24 | 0.10 | 66 | 1012.5 |
| 20260904180317 | 88 | 71 | 0.0 | 2.0 | 0.00 | 0.24 | 0.10 | 67 | 1012.5 |
| 20260904180210 | 88 | 71 | 0.0 | 2.0 | 0.00 | 0.24 | 0.10 | 69 | 1012.6 |
| 20260904175623 | 88 | 97 | 0.0 | 2.0 | 0.00 | 0.24 | 0.10 | 72 | 1012.6 |
| 20260904175301 | 88 | 46 | 0.0 | 2.0 | 0.00 | 0.24 | 0.10 | 69 | 1012.6 |
| 20260904175155 | 88 | 44 | 0.0 | 4.0 | 0.00 | 0.24 | 0.10 | 69 | 1012.7 |
| 20260904175053 | 88 | 103 | 0.0 | 4.0 | 0.00 | 0.24 | 0.10 | 69 | 1012.6 |
| 20260904174950 | 88 | 59 | 0.0 | 4.0 | 0.00 | 0.24 | 0.10 | 68 | 1012.6 |
| 20260904174846 | 88 | 107 | 1.0 | 4.0 | 0.00 | 0.24 | 0.10 | 67 | 1012.7 |
| 20260904174744 | 88 | 65 | 1.0 | 4.0 | 0.00 | 0.24 | 0.10 | 68 | 1012.7 |
| 20260904174640 | 88 | 173 | 1.0 | 4.0 | 0.00 | 0.24 | 0.10 | 68 | 1012.7 |
| 20260904174314 | 87 | 17 | 0.0 | 4.0 | 0.00 | 0.24 | 0.10 | 69 | 1012.7 |
| 20260904174210 | 87 | 12 | 1.0 | 4.0 | 0.00 | 0.24 | 0.10 | 70 | 1012.7 |
| 20260904174105 | 87 | 210 | 0.0 | 4.0 | 0.00 | 0.24 | 0.10 | 70 | 1012.7 |
| 20260904174000 | 87 | 217 | 0.0 | 4.0 | 0.00 | 0.24 | 0.10 | 70 | 1012.7 |
| 20260904173635 | 87 | 290 | 0.0 | 4.0 | 0.00 | 0.24 | 0.10 | 71 | 1012.7 |
| 20260904173530 | 87 | 61 | 0.0 | 4.0 | 0.00 | 0.24 | 0.10 | 69 | 1012.7 |
| 20260904173425 | 87 | 61 | 0.0 | 4.0 | 0.00 | 0.24 | 0.10 | 69 | 1012.7 |
| 20260904173104 | 87 | 223 | 0.0 | 3.0 | 0.00 | 0.24 | 0.10 | 70 | 1012.8 |
| 20260904172959 | 87 | 207 | 0.0 | 3.0 | 0.00 | 0.24 | 0.10 | 71 | 1012.8 |
| 20260904172630 | 87 | 26 | 1.0 | 4.0 | 0.00 | 0.24 | 0.10 | 72 | 1012.8 |
| 20260904172527 | 87 | 22 | 1.0 | 4.0 | 0.00 | 0.24 | 0.10 | 72 | 1012.8 |
| 20260904172425 | 87 | 5 | 1.0 | 4.0 | 0.00 | 0.24 | 0.10 | 71 | 1012.9 |
| 20260904172318 | 87 | 273 | 1.0 | 4.0 | 0.00 | 0.24 | 0.10 | 69 | 1012.8 |
| 20260904172210 | 88 | 221 | 1.0 | 4.0 | 0.00 | 0.24 | 0.10 | 66 | 1012.8 |
| 20260904172105 | 88 | 223 | 1.0 | 4.0 | 0.00 | 0.24 | 0.10 | 66 | 1012.8 |
| 20260904172001 | 88 | 229 | 1.0 | 4.0 | 0.00 | 0.24 | 0.10 | 68 | 1012.8 |
| 20260904171853 | 88 | 115 | 1.0 | 4.0 | 0.00 | 0.24 | 0.10 | 67 | 1012.8 |
| 20260904171748 | 87 | 49 | 1.0 | 4.0 | 0.00 | 0.24 | 0.10 | 70 | 1012.9 |
| 20260904171643 | 87 | 15 | 1.0 | 4.0 | 0.00 | 0.24 | 0.10 | 70 | 1013.0 |
| 20260904171537 | 87 | 26 | 1.0 | 4.0 | 0.00 | 0.24 | 0.10 | 72 | 1013.0 |
| 20260904171432 | 87 | 124 | 1.0 | 4.0 | 0.00 | 0.24 | 0.10 | 70 | 1013.0 |
| 20260904171325 | 87 | 157 | 0.0 | 4.0 | 0.00 | 0.24 | 0.10 | 69 | 1013.0 |
| 20260904171220 | 87 | 86 | 0.0 | 4.0 | 0.00 | 0.24 | 0.10 | 70 | 1013.0 |
| 20260904171118 | 87 | 334 | 0.0 | 4.0 | 0.00 | 0.24 | 0.10 | 72 | 1013.0 |
| 20260904171014 | 87 | 265 | 0.0 | 4.0 | 0.00 | 0.24 | 0.10 | 73 | 1013.0 |
| 20260904170909 | 87 | 45 | 0.0 | 4.0 | 0.00 | 0.24 | 0.10 | 67 | 1013.1 |
| 20260904170806 | 87 | 172 | 0.0 | 4.0 | 0.00 | 0.24 | 0.10 | 71 | 1013.1 |
| 20260904170003 | 87 | 223 | 0.0 | 2.0 | 0.00 | 0.24 | 0.10 | 69 | 1013.2 |
| 20260904165859 | 87 | 302 | 0.0 | 2.0 | 0.00 | 0.24 | 0.10 | 70 | 1013.2 |
| 20260904165757 | 87 | 282 | 0.0 | 2.0 | 0.00 | 0.24 | 0.10 | 71 | 1013.2 |
| 20260904165651 | 87 | 120 | 0.0 | 2.0 | 0.00 | 0.24 | 0.10 | 72 | 1013.2 |
| 20260904165331 | 86 | 9 | 1.0 | 2.0 | 0.00 | 0.24 | 0.10 | 71 | 1013.2 |
| 20260904165228 | 86 | 271 | 1.0 | 2.0 | 0.00 | 0.24 | 0.10 | 75 | 1013.2 |
| 20260904165121 | 86 | 355 | 1.0 | 2.0 | 0.00 | 0.24 | 0.10 | 72 | 1013.3 |
| 20260904165013 | 86 | 325 | 1.0 | 3.0 | 0.00 | 0.24 | 0.10 | 72 | 1013.3 |
| 20260904164908 | 86 | 34 | 1.0 | 3.0 | 0.00 | 0.24 | 0.10 | 72 | 1013.2 |
| 20260904164805 | 86 | 58 | 1.0 | 3.0 | 0.00 | 0.24 | 0.10 | 75 | 1013.2 |
| 20260904164657 | 86 | 25 | 0.0 | 3.0 | 0.00 | 0.24 | 0.10 | 70 | 1013.2 |
| 20260904164326 | 86 | 51 | 0.0 | 3.0 | 0.00 | 0.24 | 0.10 | 72 | 1013.3 |
| 20260904163739 | 85 | 275 | 0.0 | 3.0 | 0.00 | 0.24 | 0.10 | 74 | 1013.4 |
| 20260904163636 | 85 | 103 | 0.0 | 3.0 | 0.00 | 0.24 | 0.10 | 75 | 1013.4 |
| 20260904163531 | 85 | 287 | 0.0 | 3.0 | 0.00 | 0.24 | 0.10 | 75 | 1013.4 |
| 20260904163425 | 85 | 74 | 0.0 | 3.0 | 0.00 | 0.24 | 0.10 | 74 | 1013.4 |
| 20260904163319 | 85 | 355 | 0.0 | 3.0 | 0.00 | 0.24 | 0.10 | 73 | 1013.4 |
| 20260904163212 | 85 | 15 | 0.0 | 3.0 | 0.00 | 0.24 | 0.10 | 73 | 1013.4 |
| 20260904163105 | 85 | 38 | 0.0 | 3.0 | 0.00 | 0.24 | 0.10 | 75 | 1013.5 |
| 20260904162959 | 85 | 69 | 0.0 | 4.0 | 0.00 | 0.24 | 0.10 | 73 | 1013.5 |
| 20260904162853 | 85 | 27 | 0.0 | 4.0 | 0.00 | 0.24 | 0.10 | 72 | 1013.5 |
| 20260904162749 | 85 | 204 | 0.0 | 4.0 | 0.00 | 0.24 | 0.10 | 74 | 1013.5 |
| 20260904162644 | 85 | 170 | 0.0 | 4.0 | 0.00 | 0.24 | 0.10 | 73 | 1013.5 |
| 20260904162542 | 86 | 332 | 0.0 | 4.0 | 0.00 | 0.24 | 0.10 | 72 | 1013.5 |
| 20260904162436 | 85 | 242 | 0.0 | 4.0 | 0.00 | 0.24 | 0.10 | 76 | 1013.5 |
| 20260904162112 | 85 | 238 | 0.0 | 4.0 | 0.00 | 0.24 | 0.10 | 73 | 1013.5 |
| 20260904162008 | 85 | 59 | 0.0 | 4.0 | 0.00 | 0.24 | 0.10 | 75 | 1013.5 |
| 20260904161906 | 85 | 125 | 1.0 | 4.0 | 0.00 | 0.24 | 0.10 | 73 | 1013.5 |
| 20260904161758 | 85 | 249 | 1.0 | 4.0 | 0.00 | 0.24 | 0.10 | 72 | 1013.5 |
| 20260904161656 | 85 | 205 | 1.0 | 4.0 | 0.00 | 0.24 | 0.10 | 77 | 1013.4 |
| 20260904161551 | 85 | 57 | 0.0 | 4.0 | 0.00 | 0.24 | 0.10 | 76 | 1013.5 |
| 20260904161444 | 85 | 9 | 0.0 | 4.0 | 0.00 | 0.24 | 0.10 | 75 | 1013.5 |
| 20260904161338 | 85 | 282 | 0.0 | 4.0 | 0.00 | 0.24 | 0.10 | 76 | 1013.5 |
| 20260904161234 | 85 | 19 | 0.0 | 4.0 | 0.00 | 0.24 | 0.10 | 77 | 1013.5 |
| 20260904161132 | 85 | 318 | 0.0 | 4.0 | 0.00 | 0.24 | 0.10 | 77 | 1013.4 |
| 20260904161030 | 85 | 258 | 0.0 | 3.0 | 0.00 | 0.24 | 0.10 | 78 | 1013.5 |
| 20260904160704 | 85 | 20 | 0.0 | 3.0 | 0.00 | 0.24 | 0.10 | 74 | 1013.5 |
| 20260904160602 | 85 | 340 | 0.0 | 3.0 | 0.00 | 0.24 | 0.10 | 70 | 1013.5 |
| 20260904160455 | 86 | 18 | 0.0 | 3.0 | 0.00 | 0.24 | 0.10 | 70 | 1013.4 |
| 20260904160349 | 85 | 95 | 0.0 | 3.0 | 0.00 | 0.24 | 0.10 | 70 | 1013.4 |
| 20260904160247 | 86 | 248 | 0.0 | 3.0 | 0.00 | 0.24 | 0.10 | 72 | 1013.4 |
| 20260904160139 | 86 | 215 | 0.0 | 3.0 | 0.00 | 0.24 | 0.10 | 70 | 1013.5 |
| 20260904155555 | 86 | 234 | 0.0 | 2.0 | 0.00 | 0.24 | 0.10 | 75 | 1013.5 |
| 20260904155449 | 86 | 118 | 0.0 | 2.0 | 0.00 | 0.24 | 0.10 | 72 | 1013.5 |
| 20260904155343 | 85 | 122 | 0.0 | 4.0 | 0.00 | 0.24 | 0.10 | 75 | 1013.4 |
| 20260904155017 | 85 | 265 | 0.0 | 4.0 | 0.00 | 0.24 | 0.10 | 73 | 1013.5 |
| 20260904154909 | 85 | 104 | 0.0 | 4.0 | 0.00 | 0.24 | 0.10 | 70 | 1013.5 |
| 20260904154540 | 85 | 343 | 1.0 | 4.0 | 0.00 | 0.24 | 0.10 | 74 | 1013.5 |
| 20260904154434 | 85 | 5 | 1.0 | 4.0 | 0.00 | 0.24 | 0.10 | 74 | 1013.5 |
| 20260904154328 | 85 | 40 | 1.0 | 4.0 | 0.00 | 0.24 | 0.10 | 74 | 1013.5 |
| 20260904154223 | 85 | 120 | 1.0 | 4.0 | 0.00 | 0.24 | 0.10 | 71 | 1013.5 |
| 20260904154118 | 85 | 5 | 1.0 | 4.0 | 0.00 | 0.24 | 0.10 | 76 | 1013.6 |
| 20260904154014 | 85 | 148 | 1.0 | 4.0 | 0.00 | 0.24 | 0.10 | 75 | 1013.6 |
| 20260904153907 | 84 | 266 | 1.0 | 4.0 | 0.00 | 0.24 | 0.10 | 76 | 1013.6 |
| 20260904153544 | 84 | 73 | 0.0 | 4.0 | 0.00 | 0.24 | 0.10 | 78 | 1013.6 |
| 20260904153438 | 85 | 63 | 0.0 | 4.0 | 0.00 | 0.24 | 0.10 | 76 | 1013.7 |
| 20260904153335 | 85 | 42 | 0.0 | 2.0 | 0.00 | 0.24 | 0.10 | 77 | 1013.7 |
| 20260904153228 | 85 | 40 | 0.0 | 2.0 | 0.00 | 0.24 | 0.10 | 74 | 1013.6 |
| 20260904153126 | 84 | 5 | 0.0 | 2.0 | 0.00 | 0.24 | 0.10 | 75 | 1013.7 |
| 20260904152541 | 84 | 211 | 0.0 | 2.0 | 0.00 | 0.24 | 0.10 | 80 | 1013.7 |
| 20260904152438 | 84 | 28 | 0.0 | 2.0 | 0.00 | 0.24 | 0.10 | 77 | 1013.7 |
| 20260904152332 | 84 | 5 | 0.0 | 2.0 | 0.00 | 0.24 | 0.10 | 79 | 1013.6 |
| 20260904152226 | 84 | 57 | 0.0 | 2.0 | 0.00 | 0.24 | 0.10 | 79 | 1013.7 |
| 20260904152119 | 83 | 128 | 0.0 | 2.0 | 0.00 | 0.24 | 0.10 | 77 | 1013.7 |
| 20260904152016 | 84 | 244 | 0.0 | 2.0 | 0.00 | 0.24 | 0.10 | 78 | 1013.7 |
| 20260904151432 | 83 | 339 | 0.0 | 4.0 | 0.00 | 0.24 | 0.10 | 82 | 1013.6 |
| 20260904151327 | 82 | 5 | 0.0 | 4.0 | 0.00 | 0.24 | 0.10 | 83 | 1013.7 |
| 20260904151224 | 82 | 303 | 0.0 | 4.0 | 0.00 | 0.24 | 0.10 | 81 | 1013.7 |
| 20260904151120 | 83 | 26 | 0.0 | 4.0 | 0.00 | 0.24 | 0.10 | 82 | 1013.7 |
| 20260904151013 | 83 | 327 | 0.0 | 4.0 | 0.00 | 0.24 | 0.10 | 79 | 1013.7 |
| 20260904150909 | 83 | 271 | 0.0 | 4.0 | 0.00 | 0.24 | 0.10 | 81 | 1013.6 |
| 20260904150318 | 82 | 31 | 0.0 | 5.0 | 0.00 | 0.24 | 0.10 | 77 | 1013.6 |
| 20260904150215 | 82 | 0 | 0.0 | 5.0 | 0.00 | 0.24 | 0.10 | 80 | 1013.6 |
| 20260904145847 | 81 | 342 | 0.0 | 5.0 | 0.00 | 0.24 | 0.10 | 84 | 1013.6 |
| 20260904145744 | 81 | 156 | 0.0 | 5.0 | 0.00 | 0.24 | 0.10 | 84 | 1013.6 |
| 20260904145642 | 81 | 259 | 0.0 | 5.0 | 0.00 | 0.24 | 0.10 | 85 | 1013.7 |
| 20260904145535 | 81 | 275 | 0.0 | 5.0 | 0.00 | 0.24 | 0.10 | 81 | 1013.6 |
| 20260904145207 | 81 | 300 | 0.0 | 5.0 | 0.00 | 0.24 | 0.10 | 84 | 1013.8 |
| 20260904144839 | 81 | 324 | 0.0 | 2.0 | 0.00 | 0.24 | 0.10 | 84 | 1013.9 |
| 20260904144736 | 81 | 11 | 0.0 | 2.0 | 0.00 | 0.24 | 0.10 | 83 | 1013.8 |
| 20260904144629 | 81 | 304 | 0.0 | 2.0 | 0.00 | 0.24 | 0.10 | 81 | 1013.8 |
| 20260904144527 | 81 | 85 | 0.0 | 2.0 | 0.00 | 0.24 | 0.10 | 82 | 1013.8 |
| 20260904144202 | 81 | 355 | 0.0 | 2.0 | 0.00 | 0.24 | 0.10 | 80 | 1013.9 |
| 20260904144059 | 81 | 355 | 0.0 | 2.0 | 0.00 | 0.24 | 0.10 | 82 | 1013.9 |
| 20260904143730 | 81 | 333 | 0.0 | 2.0 | 0.00 | 0.24 | 0.10 | 83 | 1013.8 |
| 20260904143625 | 81 | 332 | 0.0 | 2.0 | 0.00 | 0.24 | 0.10 | 86 | 1013.8 |
| 20260904143517 | 81 | 0 | 0.0 | 2.0 | 0.00 | 0.24 | 0.10 | 85 | 1013.9 |
| 20260904143414 | 81 | 0 | 0.0 | 2.0 | 0.00 | 0.24 | 0.10 | 84 | 1013.8 |
| 20260904143311 | 81 | 49 | 0.0 | 2.0 | 0.00 | 0.24 | 0.10 | 83 | 1013.9 |
| 20260904143204 | 81 | 232 | 0.0 | 2.0 | 0.00 | 0.24 | 0.10 | 83 | 1013.9 |
| 20260904143058 | 81 | 295 | 0.0 | 2.0 | 0.00 | 0.24 | 0.10 | 83 | 1013.9 |
| 20260904142955 | 81 | 288 | 0.0 | 2.0 | 0.00 | 0.24 | 0.10 | 81 | 1013.9 |
| 20260904142851 | 81 | 213 | 0.0 | 2.0 | 0.00 | 0.24 | 0.10 | 84 | 1013.9 |
| 20260904142748 | 80 | 292 | 0.0 | 2.0 | 0.00 | 0.24 | 0.10 | 85 | 1013.9 |
| 20260904142644 | 80 | 290 | 0.0 | 2.0 | 0.00 | 0.24 | 0.10 | 86 | 1013.9 |
| 20260904142539 | 80 | 78 | 0.0 | 2.0 | 0.00 | 0.24 | 0.10 | 88 | 1014.0 |
| 20260904142435 | 80 | 217 | 0.0 | 2.0 | 0.00 | 0.24 | 0.10 | 88 | 1013.9 |
| 20260904142329 | 80 | 10 | 0.0 | 2.0 | 0.00 | 0.24 | 0.10 | 87 | 1013.9 |
| 20260904142222 | 80 | 264 | 0.0 | 2.0 | 0.00 | 0.24 | 0.10 | 87 | 1013.9 |
| 20260904142117 | 80 | 155 | 0.0 | 2.0 | 0.00 | 0.24 | 0.10 | 88 | 1013.9 |
| 20260904141754 | 79 | 355 | 0.0 | 2.0 | 0.00 | 0.24 | 0.10 | 90 | 1013.9 |
| 20260904141646 | 79 | 325 | 0.0 | 1.0 | 0.00 | 0.24 | 0.10 | 90 | 1013.9 |
| 20260904141542 | 79 | 332 | 0.0 | 1.0 | 0.00 | 0.24 | 0.10 | 90 | 1013.9 |
| 20260904141436 | 79 | 340 | 0.0 | 0.0 | 0.00 | 0.24 | 0.10 | 89 | 1013.9 |
| 20260904141333 | 79 | 340 | 0.0 | 1.0 | 0.00 | 0.24 | 0.10 | 89 | 1013.8 |
| 20260904141225 | 79 | 340 | 0.0 | 1.0 | 0.00 | 0.24 | 0.10 | 89 | 1013.8 |
| 20260904141119 | 79 | 340 | 0.0 | 1.0 | 0.00 | 0.24 | 0.10 | 89 | 1013.8 |